ECMWFFLT1_sfc_gust_000.txt.gz
Wind_Gust
0 0 0 0 0 0 0 0 0 0 0 0 0 0 0 0 0 0 0 0 0 0 0 0 0 0 0 0 0 0 0 0 0 0 0 0 0 0 0 0 0 0 0 0 0 0 0 0 0 0 0 0 0 0 0 0 0 0 0 0 0 0 0
0 0 0 0 0 0 0 0 0 0 0 0 0 0 0 0 0 0 0 0 0 0 0 0 0 0 0 0 0 0 0 0 0 0 0 0 0 0 0 0 0 0 0 0 0 0 0 0 0 0 0 0 0 0 0 0 0 0 0 0 0 0 0
0 0 0 0 0 0 0 0 0 0 0 0 0 0 0 0 0 0 0 0 0 0 0 0 0 0 0 0 0 0 0 0 0 0 0 0 0 0 0 0 0 0 0 0 0 0 0 0 0 0 0 0 0 0 0 0 0 0 0 0 0 0 0
0 0 0 0 0 0 0 0 0 0 0 0 0 0 0 0 0 0 0 0 0 0 0 0 0 0 0 0 0 0 0 0 0 0 0 0 0 0 0 0 0 0 0 0 0 0 0 0 0 0 0 0 0 0 0 0 0 0 0 0 0 0 0
0 0 0 0 0 0 0 0 0 0 0 0 0 0 0 0 0 0 0 0 0 0 0 0 0 0 0 0 0 0 0 0 0 0 0 0 0 0 0 0 0 0 0 0 0 0 0 0 0 0 0 0 0 0 0 0 0 0 0 0 0 0 0
0 0 0 0 0 0 0 0 0 0 0 0 0 0 0 0 0 0 0 0 0 0 0 0 0 0 0 0 0 0 0 0 0 0 0 0 0 0 0 0 0 0 0 0 0 0 0 0 0 0 0 0 0 0 0 0 0 0 0 0 0 0 0
0 0 0 0 0 0 0 0 0 0 0 0 0 0 0 0 0 0 0 0 0 0 0 0 0 0 0 0 0 0 0 0 0 0 0 0 0 0 0 0 0 0 0 0 0 0 0 0 0 0 0 0 0 0 0 0 0 0 0 0 0 0 0
0 0 0 0 0 0 0 0 0 0 0 0 0 0 0 0 0 0 0 0 0 0 0 0 0 0 0 0 0 0 0 0 0 0 0 0 0 0 0 0 0 0 0 0 0 0 0 0 0 0 0 0 0 0 0 0 0 0 0 0 0 0 0
0 0 0 0 0 0 0 0 0 0 0 0 0 0 0 0 0 0 0 0 0 0 0 0 0 0 0 0 0 0 0 0 0 0 0 0 0 0 0 0 0 0 0 0 0 0 0 0 0 0 0 0 0 0 0 0 0 0 0 0 0 0 0
0 0 0 0 0 0 0 0 0 0 0 0 0 0 0 0 0 0 0 0 0 0 0 0 0 0 0 0 0 0 0 0 0 0 0 0 0 0 0 0 0 0 0 0 0 0 0 0 0 0 0 0 0 0 0 0 0 0 0 0 0 0 0
0 0 0 0 0 0 0 0 0 0 0 0 0 0 0 0 0 0 0 0 0 0 0 0 0 0 0 0 0 0 0 0 0 0 0 0 0 0 0 0 0 0 0 0 0 0 0 0 0 0 0 0 0 0 0 0 0 0 0 0 0 0 0
0 0 0 0 0 0 0 0 0 0 0 0 0 0 0 0 0 0 0 0 0 0 0 0 0 0 0 0 0 0 0 0 0 0 0 0 0 0 0 0 0 0 0 0 0 0 0 0 0 0 0 0 0 0 0 0 0 0 0 0 0 0 0
0 0 0 0 0 0 0 0 0 0 0 0 0 0 0 0 0 0 0 0 0 0 0 0 0 0 0 0 0 0 0 0 0 0 0 0 0 0 0 0 0 0 0 0 0 0 0 0 0 0 0 0 0 0 0 0 0 0 0 0 0 0 0
0 0 0 0 0 0 0 0 0 0 0 0 0 0 0 0 0 0 0 0 0 0 0 0 0 0 0 0 0 0 0 0 0 0 0 0 0 0 0 0 0 0 0 0 0 0 0 0 0 0 0 0 0 0 0 0 0 0 0 0 0 0 0
0 0 0 0 0 0 0 0 0 0 0 0 0 0 0 0 0 0 0 0 0 0 0 0 0 0 0 0 0 0 0 0 0 0 0 0 0 0 0 0 0 0 0 0 0 0 0 0 0 0 0 0 0 0 0 0 0 0 0 0 0 0 0
0 0 0 0 0 0 0 0 0 0 0 0 0 0 0 0 0 0 0 0 0 0 0 0 0 0 0 0 0 0 0 0 0 0 0 0 0 0 0 0 0 0 0 0 0 0 0 0 0 0 0 0 0 0 0 0 0 0 0 0 0 0 0
0 0 0 0 0 0 0 0 0 0 0 0 0 0 0 0 0 0 0 0 0 0 0 0 0 0 0 0 0 0 0 0 0 0 0 0 0 0 0 0 0 0 0 0 0 0 0 0 0 0 0 0 0 0 0 0 0 0 0 0 0 0 0
0 0 0 0 0 0 0 0 0 0 0 0 0 0 0 0 0 0 0 0 0 0 0 0 0 0 0 0 0 0 0 0 0 0 0 0 0 0 0 0 0 0 0 0 0 0 0 0 0 0 0 0 0 0 0 0 0 0 0 0 0 0 0
0 0 0 0 0 0 0 0 0 0 0 0 0 0 0 0 0 0 0 0 0 0 0 0 0 0 0 0 0 0 0 0 0 0 0 0 0 0 0 0 0 0 0 0 0 0 0 0 0 0 0 0 0 0 0 0 0 0 0 0 0 0 0
0 0 0 0 0 0 0 0 0 0 0 0 0 0 0 0 0 0 0 0 0 0 0 0 0 0 0 0 0 0 0 0 0 0 0 0 0 0 0 0 0 0 0 0 0 0 0 0 0 0 0 0 0 0 0 0 0 0 0 0 0 0 0
0 0 0 0 0 0 0 0 0 0 0 0 0 0 0 0 0 0 0 0 0 0 0 0 0 0 0 0 0 0 0 0 0 0 0 0 0 0 0 0 0 0 0 0 0 0 0 0 0 0 0 0 0 0 0 0 0 0 0 0 0 0 0
0 0 0 0 0 0 0 0 0 0 0 0 0 0 0 0 0 0 0 0 0 0 0 0 0 0 0 0 0 0 0 0 0 0 0 0 0 0 0 0 0 0 0 0 0 0 0 0 0 0 0 0 0 0 0 0 0 0 0 0 0 0 0
0 0 0 0 0 0 0 0 0 0 0 0 0 0 0 0 0 0 0 0 0 0 0 0 0 0 0 0 0 0 0 0 0 0 0 0 0 0 0 0 0 0 0 0 0 0 0 0 0 0 0 0 0 0 0 0 0 0 0 0 0 0 0
0 0 0 0 0 0 0 0 0 0 0 0 0 0 0 0 0 0 0 0 0 0 0 0 0 0 0 0 0 0 0 0 0 0 0 0 0 0 0 0 0 0 0 0 0 0 0 0 0 0 0 0 0 0 0 0 0 0 0 0 0 0 0
0 0 0 0 0 0 0 0 0 0 0 0 0 0 0 0 0 0 0 0 0 0 0 0 0 0 0 0 0 0 0 0 0 0 0 0 0 0 0 0 0 0 0 0 0 0 0 0 0 0 0 0 0 0 0 0 0 0 0 0 0 0 0
0 0 0 0 0 0 0 0 0 0 0 0 0 0 0 0 0 0 0 0 0 0 0 0 0 0 0 0 0 0 0 0 0 0 0 0 0 0 0 0 0 0 0 0 0 0 0 0 0 0 0 0 0 0 0 0 0 0 0 0 0 0 0
0 0 0 0 0 0 0 0 0 0 0 0 0 0 0 0 0 0 0 0 0 0 0 0 0 0 0 0 0 0 0 0 0 0 0 0 0 0 0 0 0 0 0 0 0 0 0 0 0 0 0 0 0 0 0 0 0 0 0 0 0 0 0
0 0 0 0 0 0 0 0 0 0 0 0 0 0 0 0 0 0 0 0 0 0 0 0 0 0 0 0 0 0 0 0 0 0 0 0 0 0 0 0 0 0 0 0 0 0 0 0 0 0 0 0 0 0 0 0 0 0 0 0 0 0 0
0 0 0 0 0 0 0 0 0 0 0 0 0 0 0 0 0 0 0 0 0 0 0 0 0 0 0 0 0 0 0 0 0 0 0 0 0 0 0 0 0 0 0 0 0 0 0 0 0 0 0 0 0 0 0 0 0 0 0 0 0 0 0
0 0 0 0 0 0 0 0 0 0 0 0 0 0 0 0 0 0 0 0 0 0 0 0 0 0 0 0 0 0 0 0 0 0 0 0 0 0 0 0 0 0 0 0 0 0 0 0 0 0 0 0 0 0 0 0 0 0 0 0 0 0 0
0 0 0 0 0 0 0 0 0 0 0 0 0 0 0 0 0 0 0 0 0 0 0 0 0 0 0 0 0 0 0 0 0 0 0 0 0 0 0 0 0 0 0 0 0 0 0 0 0 0 0 0 0 0 0 0 0 0 0 0 0 0 0
0 0 0 0 0 0 0 0 0 0 0 0 0 0 0 0 0 0 0 0 0 0 0 0 0 0 0 0 0 0 0 0 0 0 0 0 0 0 0 0 0 0 0 0 0 0 0 0 0 0 0 0 0 0 0 0 0 0 0 0 0 0 0
0 0 0 0 0 0 0 0 0 0 0 0 0 0 0 0 0 0 0 0 0 0 0 0 0 0 0 0 0 0 0 0 0 0 0 0 0 0 0 0 0 0 0 0 0 0 0 0 0 0 0 0 0 0 0 0 0 0 0 0 0 0 0
0 0 0 0 0 0 0 0 0 0 0 0 0 0 0 0 0 0 0 0 0 0 0 0 0 0 0 0 0 0 0 0 0 0 0 0 0 0 0 0 0 0 0 0 0 0 0 0 0 0 0 0 0 0 0 0 0 0 0 0 0 0 0
0 0 0 0 0 0 0 0 0 0 0 0 0 0 0 0 0 0 0 0 0 0 0 0 0 0 0 0 0 0 0 0 0 0 0 0 0 0 0 0 0 0 0 0 0 0 0 0 0 0 0 0 0 0 0 0 0 0 0 0 0 0 0
0 0 0 0 0 0 0 0 0 0 0 0 0 0 0 0 0 0 0 0 0 0 0 0 0 0 0 0 0 0 0 0 0 0 0 0 0 0 0 0 0 0 0 0 0 0 0 0 0 0 0 0 0 0 0 0 0 0 0 0 0 0 0
0 0 0 0 0 0 0 0 0 0 0 0 0 0 0 0 0 0 0 0 0 0 0 0 0 0 0 0 0 0 0 0 0 0 0 0 0 0 0 0 0 0 0 0 0 0 0 0 0 0 0 0 0 0 0 0 0 0 0 0 0 0 0

ECMWFFLT1_sfc_gust_006.txt.gz
Wind_Gust
9 10 9 10 11 12 14 15 14 13 13 14 15 15 16 17 17 17 17 17 17 18 19 20 22 22 22 20 21 21 19 20 22 24 23 27 30 28 26 26 26 24 22 20 18 21 20 20 23 24 23 23 23 23 23 22 21 20 18 18 22 22 22
8 9 9 9 12 12 13 13 14 15 14 12 14 15 15 16 17 17 17 18 19 19 19 20 19 22 23 22 24 25 21 19 21 23 22 21 20 24 22 25 29 31 30 26 23 23 24 23 22 22 23 21 21 21 23 21 21 19 19 20 21 21 20
9 9 9 10 10 11 13 14 14 14 14 14 13 14 16 17 16 16 18 18 19 20 20 20 19 20 20 22 25 25 26 24 20 22 27 26 20 15 23 24 28 30 30 30 28 27 26 25 26 22 23 23 26 26 23 23 22 20 21 21 20 21 21
9 9 10 9 11 12 14 14 14 14 14 15 15 15 15 17 17 18 17 18 18 20 22 21 20 21 21 21 23 26 27 26 23 21 19 20 20 18 20 22 28 32 32 34 30 29 28 26 26 23 21 26 25 22 24 23 24 25 24 22 21 21 20
9 10 11 11 11 12 12 14 15 16 16 16 15 16 16 15 16 18 17 18 19 19 20 21 20 21 21 21 21 24 24 24 24 23 23 23 23 21 20 22 27 29 31 33 34 30 28 28 25 24 23 23 24 25 23 23 24 24 25 24 24 22 21
8 10 11 11 11 11 12 12 14 16 16 17 17 18 17 17 19 19 18 19 20 19 20 21 20 21 22 22 21 25 26 28 32 28 26 25 27 27 26 24 24 28 35 33 33 32 28 26 25 26 27 23 23 21 22 24 29 26 25 26 24 23 24
9 9 11 11 11 12 12 12 13 15 16 17 18 19 18 18 20 20 20 21 21 21 21 22 22 22 22 25 22 23 25 26 28 31 32 30 30 31 29 28 26 26 26 29 31 31 32 30 29 26 26 26 22 24 21 25 24 27 26 24 23 23 23
10 10 11 11 12 13 13 14 15 15 16 16 18 19 19 19 20 22 21 23 23 23 23 23 24 23 22 24 25 23 25 23 29 32 33 34 35 31 28 29 29 26 25 24 19 32 34 30 30 29 26 26 24 23 23 25 25 25 24 21 21 22 20
10 10 11 11 12 13 15 16 17 16 16 16 17 18 19 20 20 21 22 23 23 23 23 24 24 25 23 25 25 25 25 24 24 27 30 32 36 35 32 31 28 27 25 23 22 21 29 30 31 28 28 27 27 28 26 26 27 27 25 27 22 20 21
11 11 12 12 13 14 15 17 17 17 17 18 18 17 20 20 21 21 22 22 22 23 24 24 25 25 25 25 27 25 27 25 25 26 27 29 30 35 35 34 33 30 27 24 23 22 22 24 32 32 31 31 29 30 28 29 29 29 29 30 28 27 20
12 12 12 13 14 15 15 17 17 18 17 17 18 18 20 21 22 21 23 24 23 23 24 24 25 26 26 28 27 28 28 26 27 26 27 28 31 30 35 36 39 38 29 25 28 26 23 24 30 33 35 33 29 30 28 29 27 26 26 27 27 29 26
13 12 12 13 14 15 17 18 18 20 20 20 21 20 21 22 23 23 23 23 23 24 24 26 25 26 26 28 27 29 29 29 30 28 27 28 29 33 36 40 37 37 33 30 27 25 25 25 26 34 34 36 31 30 29 27 29 27 26 29 27 24 30
13 13 13 14 15 16 18 19 20 20 22 22 21 22 23 23 24 24 24 24 23 24 24 25 26 26 28 28 29 29 29 30 32 32 30 29 30 31 34 37 36 37 35 31 35 29 29 26 23 31 32 34 32 30 29 28 27 24 28 27 27 25 28
12 14 14 14 16 17 18 20 21 22 23 24 24 24 24 24 25 25 26 26 26 27 26 26 26 26 27 28 31 29 29 31 33 35 33 32 30 30 33 34 36 38 36 36 35 36 33 30 27 26 33 34 34 32 32 30 29 26 21 21 25 26 26
13 14 14 15 17 18 20 21 21 21 22 24 24 26 27 25 24 25 25 27 27 28 28 29 27 27 28 28 30 31 30 31 32 35 34 34 33 32 29 33 38 41 41 39 38 37 36 34 28 26 29 33 35 33 32 35 31 26 22 21 21 23 27
13 14 15 16 17 20 21 21 21 23 24 25 25 26 27 26 27 27 27 28 28 28 29 30 30 29 29 29 30 30 31 31 32 33 34 36 37 34 32 32 34 34 39 39 39 39 37 34 29 28 33 31 35 33 31 33 31 29 27 28 25 26 27
13 15 16 17 18 19 22 22 23 24 25 25 27 26 27 28 28 28 28 29 29 29 30 30 31 31 31 30 31 31 31 33 33 33 35 35 37 38 34 33 34 35 34 40 40 39 38 36 34 29 28 31 27 33 29 29 32 28 29 29 27 27 27
14 15 16 17 19 22 23 24 24 25 25 26 26 27 28 28 29 29 31 30 30 31 31 31 32 33 32 31 31 32 32 32 33 34 34 35 29 36 37 35 33 33 34 32 37 40 37 36 38 34 30 29 28 30 28 30 32 31 27 27 28 25 25
14 16 17 18 20 21 23 24 25 25 25 26 28 28 29 30 30 30 31 31 31 31 32 33 34 34 34 33 33 32 33 32 33 35 35 34 36 35 34 37 34 33 34 34 29 34 39 39 40 38 37 31 28 31 31 31 31 32 28 28 28 28 24
15 16 17 19 21 23 24 24 26 27 26 26 29 30 30 30 30 31 32 32 32 33 33 34 35 34 34 34 34 33 33 33 33 34 35 37 36 36 36 37 35 34 35 35 35 40 39 37 40 36 34 33 33 30 30 33 34 32 30 29 26 28 29
15 16 18 21 22 23 24 25 26 27 27 29 31 31 32 31 31 31 33 33 34 34 34 34 35 35 36 36 35 35 34 33 34 35 34 36 36 36 36 35 35 35 36 36 39 36 37 41 38 37 34 33 35 32 33 33 30 32 32 32 28 28 26
15 18 20 22 22 23 25 26 27 28 28 29 30 30 30 31 32 33 34 34 35 34 35 36 36 36 36 36 36 36 36 35 35 34 37 38 38 39 37 36 35 37 35 26 24 23 25 26 36 38 32 29 28 28 29 26 30 31 31 32 27 27 28
17 18 21 22 23 25 27 28 28 28 29 30 30 30 30 31 32 34 35 36 35 36 37 37 31 26 25 34 34 36 34 34 34 34 35 38 39 40 40 36 36 26 25 22 21 24 25 26 27 33 31 32 34 28 27 31 32 34 34 33 29 30 29
17 20 21 23 24 27 28 29 29 29 29 29 30 31 32 33 34 34 35 35 36 37 38 37 26 23 25 27 32 33 32 33 32 35 35 37 40 39 37 37 35 29 26 21 26 26 23 23 28 28 27 28 25 30 26 30 31 31 35 32 28 29 30
19 21 22 24 26 27 28 29 29 29 30 30 30 30 31 33 34 35 36 36 37 38 38 27 26 25 25 25 24 36 36 34 32 33 34 36 38 37 36 37 35 34 37 38 35 29 27 25 24 26 28 30 28 26 22 26 27 30 29 28 29 30 30
20 22 22 24 26 27 29 29 29 29 30 30 29 31 32 33 34 35 37 38 39 39 39 28 27 27 26 25 25 28 37 37 37 35 32 34 36 38 35 34 34 36 36 25 29 38 34 30 24 27 25 25 28 28 24 22 22 30 24 25 27 28 31
21 21 22 25 26 28 28 29 29 30 31 31 31 32 32 33 34 36 38 38 39 40 41 30 28 28 27 27 27 26 36 39 38 38 37 35 34 36 37 35 35 34 34 32 34 38 37 37 29 27 27 26 27 27 21 25 24 24 25 25 26 28 26
20 20 23 25 27 28 29 30 30 31 32 31 32 33 33 33 34 35 36 38 39 40 43 28 28 28 27 27 28 27 36 39 39 39 39 36 35 35 35 37 33 34 34 36 36 34 38 37 31 25 26 28 28 29 25 24 24 24 25 18 22 25 25
20 22 24 26 27 29 30 30 31 31 31 32 32 33 33 34 36 36 36 38 39 41 41 29 28 27 28 27 28 30 36 39 39 39 40 37 37 37 36 37 36 36 35 36 27 23 27 36 34 31 27 28 27 24 18 18 10 16 18 18 18 16 18
21 23 24 27 29 30 31 32 30 30 31 32 32 33 34 35 35 36 37 38 40 42 42 34 29 29 29 29 26 33 37 38 38 39 39 37 38 39 37 35 36 37 36 35 23 23 22 22 34 31 29 24 16 15 14 13 21 20 18 20 22 22 21
22 23 24 27 30 30 29 30 31 30 32 32 33 33 34 35 35 35 36 38 39 38 38 33 29 29 30 31 28 36 37 37 36 39 38 37 38 37 37 30 28 37 36 35 19 25 23 24 31 32 32 23 22 18 14 16 19 20 23 24 23 23 25
21 23 25 27 26 27 29 31 32 31 31 31 33 33 33 34 34 34 34 34 31 41 40 36 31 31 32 31 32 35 38 35 35 37 36 35 37 39 37 30 27 30 30 25 25 24 26 27 32 30 26 27 24 23 22 22 24 25 21 21 21 24 23
21 23 26 26 26 26 30 33 32 32 32 32 33 32 32 34 35 34 31 32 34 35 39 39 37 31 31 29 30 35 35 36 35 36 34 35 37 36 38 36 25 25 24 20 25 25 26 25 27 25 26 29 27 23 20 23 22 24 21 22 22 23 23
23 23 24 25 26 29 31 32 32 31 32 32 32 33 34 33 32 32 33 31 30 30 32 34 33 28 27 28 29 30 33 36 35 33 34 33 35 35 36 38 32 21 23 21 24 26 27 26 21 27 27 28 28 28 21 22 23 20 25 24 23 24 25
21 23 25 26 26 27 28 30 31 31 32 31 33 34 33 32 30 32 31 30 28 28 25 25 31 24 27 30 30 33 32 33 33 34 34 35 34 35 34 30 29 16 19 21 22 25 26 24 25 26 28 19 27 30 28 25 27 26 25 22 24 25 25
21 24 26 27 26 23 27 29 31 31 31 31 32 33 32 31 30 31 30 28 22 23 23 23 19 26 24 27 31 32 32 31 24 33 34 34 35 28 24 24 18 18 19 21 21 22 22 23 20 19 26 30 31 28 26 25 24 25 26 26 27 27 24
20 22 25 26 25 22 24 28 30 30 30 31 32 33 32 30 30 30 32 31 27 21 18 19 16 19 22 22 25 30 32 33 28 27 30 29 30 29 27 24 18 19 19 20 20 18 18 19 20 25 29 30 31 26 28 28 25 24 24 23 25 25 25

ECMWFFLT1_sfc_gust_009.txt.gz
Wind_Gust
8 9 7 7 6 7 9 9 11 11 10 10 11 14 15 15 15 16 15 15 17 18 19 19 20 20 20 20 20 21 23 24 27 31 26 25 28 29 22 22 26 27 27 25 23 22 23 22 25 24 23 23 25 24 24 22 22 20 18 17 20 21 21
10 9 9 7 6 6 8 8 10 11 11 11 12 11 13 15 15 16 17 17 17 18 18 19 19 20 20 20 20 21 21 21 23 21 24 26 25 25 19 19 21 29 28 26 27 26 26 24 24 24 23 22 22 21 24 23 22 20 19 21 21 21 21
8 8 6 7 7 6 7 8 9 9 10 9 10 12 12 14 15 16 17 18 18 19 19 19 20 20 20 19 21 21 21 22 21 23 26 24 22 18 19 15 18 25 28 29 25 26 24 26 27 25 22 21 25 26 23 21 24 22 22 20 20 22 21
9 7 8 9 8 7 8 7 9 9 9 10 10 10 11 13 13 14 16 19 19 19 21 20 19 21 20 20 20 20 22 23 25 25 21 22 21 21 20 20 18 21 23 29 25 27 25 25 26 28 26 23 22 19 21 22 23 25 24 23 22 22 21
10 10 9 8 8 9 9 10 9 10 10 10 10 11 10 11 12 14 15 17 19 21 22 21 20 20 21 20 21 21 21 23 24 27 27 26 23 23 23 22 21 18 19 25 27 23 26 27 26 26 27 25 25 25 21 21 24 26 25 25 24 22 23
11 10 9 9 8 10 10 10 9 11 11 11 10 11 11 12 13 14 15 18 19 19 21 22 23 21 21 21 21 20 22 21 25 27 28 27 29 28 27 24 23 21 19 15 20 22 18 21 28 30 30 28 27 24 22 23 28 25 26 26 25 26 24
12 12 10 10 10 10 9 10 11 12 12 12 13 13 12 13 14 14 15 17 19 20 21 22 23 23 22 24 22 23 22 22 21 23 26 26 29 30 27 26 25 26 22 19 18 18 18 17 23 28 26 29 27 28 25 23 26 25 26 26 25 25 24
13 12 12 10 10 11 10 11 12 13 14 14 14 13 13 13 15 16 16 18 18 20 21 22 23 24 25 24 24 25 25 23 23 23 23 29 30 27 29 32 29 27 24 20 19 20 20 21 20 21 22 27 28 26 26 25 24 25 21 24 27 25 24
13 12 12 11 11 10 11 12 13 13 14 15 14 14 14 15 16 17 18 18 19 20 22 23 23 24 24 26 26 23 25 24 23 23 24 26 30 30 33 31 31 32 27 24 22 20 22 18 17 17 16 23 30 29 26 28 27 24 25 24 25 25 23
13 12 11 10 11 11 12 13 14 14 13 15 16 15 17 16 17 17 19 19 19 19 20 22 23 24 25 26 27 26 26 25 27 26 25 26 26 29 29 28 32 30 29 26 25 23 20 17 16 16 17 18 25 31 29 31 25 25 26 28 27 26 22
14 13 12 12 12 13 13 14 14 15 15 15 15 16 17 18 18 18 20 21 21 20 21 22 23 25 24 26 26 28 28 26 27 26 26 26 26 25 26 29 31 32 31 31 26 23 20 21 19 18 17 16 21 28 29 29 28 25 23 26 28 27 20
15 14 13 13 13 14 14 14 14 15 15 16 19 18 19 20 20 20 19 21 21 22 21 22 22 24 25 26 26 29 28 28 29 27 27 27 26 25 26 28 29 30 31 33 33 27 23 21 21 19 19 19 25 25 26 30 32 25 21 18 26 27 29
16 15 14 14 15 15 15 15 16 16 17 18 19 19 20 21 22 21 21 22 22 23 23 23 23 24 26 26 26 27 28 28 29 30 29 28 27 27 27 28 28 29 31 32 32 32 28 23 23 23 22 21 22 23 23 27 28 32 26 20 25 25 27
15 15 14 15 15 16 16 16 17 17 17 18 18 20 22 22 23 23 23 23 23 23 24 25 24 24 24 25 27 26 28 30 30 30 30 31 30 27 29 29 30 30 28 30 31 30 33 31 26 27 23 22 22 19 23 24 29 33 31 21 24 28 28
16 15 15 15 16 17 17 17 17 18 18 19 19 21 23 23 23 24 24 25 24 25 26 26 25 25 26 26 26 26 26 29 30 31 29 31 32 33 28 30 31 30 30 33 30 33 33 35 33 32 29 27 26 23 21 25 24 28 28 17 21 20 24
16 15 15 15 16 18 18 17 18 20 21 21 20 21 22 23 24 25 26 26 26 26 26 27 26 27 28 28 28 26 27 28 29 30 31 31 33 33 32 31 31 29 28 30 32 34 33 35 37 36 35 29 28 27 22 23 24 23 24 24 23 25 25
15 15 15 16 16 17 18 18 18 20 21 21 22 21 22 24 26 26 28 29 29 28 29 28 28 29 29 29 30 29 28 29 30 30 32 33 32 33 33 34 32 31 30 31 30 31 34 34 34 38 35 33 30 28 27 24 26 24 20 27 26 27 28
15 16 16 16 16 17 17 19 19 20 21 22 21 23 24 24 26 28 30 29 30 30 29 30 30 31 30 29 29 30 29 29 30 32 32 32 27 32 33 35 33 32 33 34 33 33 34 32 35 35 36 38 39 33 27 24 25 23 23 21 26 29 27
15 15 15 16 16 17 18 19 20 20 21 23 24 25 25 27 28 29 29 30 31 31 31 31 31 31 32 31 31 30 30 29 30 32 32 33 33 34 33 33 35 34 34 36 34 33 33 33 35 32 36 38 38 39 38 30 27 27 25 21 21 26 21
15 14 14 16 16 17 19 19 20 22 22 24 25 26 27 28 28 29 30 31 32 32 32 32 32 32 32 32 32 33 32 32 31 31 32 34 33 35 35 34 33 35 37 37 35 34 33 32 36 34 35 35 39 36 38 39 31 29 28 32 25 22 23
13 15 15 16 17 18 19 20 21 21 23 26 27 27 28 28 28 29 31 31 32 32 32 32 32 33 33 32 33 32 34 33 33 32 31 34 34 35 37 37 35 35 37 38 39 37 34 33 35 33 33 28 32 38 39 38 33 30 29 33 28 26 24
14 15 17 18 18 18 19 19 21 23 24 26 27 28 27 28 29 30 30 31 32 32 33 34 33 32 32 33 33 33 33 34 35 34 32 33 35 36 35 37 37 38 35 27 26 22 21 22 33 38 33 30 30 38 40 36 36 32 33 32 24 25 30
16 16 17 17 18 18 19 20 22 24 26 27 28 28 28 28 29 31 32 32 32 33 34 35 27 22 20 30 30 32 31 33 33 35 35 35 34 35 36 35 36 27 26 25 23 23 22 21 19 26 33 28 34 39 40 36 33 29 34 34 32 33 36
16 16 16 17 17 19 20 20 22 24 25 26 28 29 29 30 30 31 32 32 33 34 35 34 23 21 19 19 25 34 35 32 30 32 34 36 36 35 35 35 35 31 27 23 27 25 22 21 20 22 24 21 17 33 38 39 31 32 30 28 32 32 36
16 16 16 18 19 19 19 21 23 24 26 27 28 28 30 30 31 31 32 33 33 35 35 24 23 23 21 20 16 28 36 39 36 35 33 33 33 33 34 35 35 38 41 39 39 34 31 27 25 23 24 25 24 21 23 31 33 36 34 32 29 31 34
17 17 17 17 18 18 20 22 23 24 26 26 27 29 30 31 32 32 33 34 35 36 36 24 22 23 23 23 22 21 30 37 39 38 36 35 34 33 32 33 35 38 36 24 27 37 36 34 26 27 24 24 25 24 22 25 24 27 29 36 36 33 33
17 17 16 16 18 20 20 22 22 23 26 27 28 29 30 31 31 32 33 34 36 37 37 27 23 22 20 22 22 22 28 34 37 40 40 39 35 35 34 33 35 35 34 32 35 37 36 37 32 26 26 26 26 24 22 28 33 30 25 27 27 31 30
17 17 16 18 19 20 20 22 23 25 26 27 29 30 30 30 31 31 33 33 35 36 38 24 21 21 21 21 19 19 29 35 39 41 42 40 40 39 36 37 34 34 34 36 35 31 34 35 36 37 29 29 29 26 25 26 25 23 24 26 24 24 23
17 17 18 19 20 20 21 22 24 25 26 28 30 30 31 32 32 34 34 35 36 38 39 26 24 23 25 24 24 28 34 37 42 42 43 41 39 39 39 39 38 37 33 34 27 23 25 34 35 35 35 33 33 30 28 21 21 24 29 30 26 20 21
17 18 19 20 20 20 21 21 24 27 29 30 30 31 32 32 33 35 35 36 37 40 39 30 25 24 24 26 25 33 37 39 39 40 42 39 41 40 38 39 38 39 37 35 27 24 22 21 32 38 37 34 33 31 32 16 16 13 16 20 25 22 17
18 18 19 21 21 20 22 23 22 24 28 31 33 32 32 34 34 34 35 36 37 38 38 32 26 26 26 25 24 32 36 38 38 39 38 37 38 38 38 34 34 40 40 37 26 28 26 23 32 38 36 33 33 34 21 17 16 14 15 17 19 17 23
18 19 20 20 20 21 23 24 22 24 29 30 33 32 32 34 34 34 34 36 29 38 40 36 30 29 29 30 31 32 37 38 38 37 36 36 35 37 37 33 34 39 39 33 26 27 28 21 33 38 36 34 34 32 21 21 21 21 20 23 18 19 18
17 19 20 21 21 22 22 23 22 25 29 32 33 32 33 34 35 36 36 36 37 35 37 37 34 27 26 27 30 33 34 36 37 37 36 37 35 35 36 37 37 31 36 36 34 32 26 23 32 38 35 35 32 33 22 22 22 23 20 20 19 20 22
17 19 20 20 19 21 23 22 21 23 29 30 31 33 34 35 36 36 35 35 36 34 35 35 35 27 25 27 29 31 32 38 36 36 35 34 36 36 35 36 35 29 30 33 35 38 38 28 25 33 35 34 31 20 21 22 21 14 19 18 19 21 21
16 18 19 20 21 20 21 20 22 25 28 29 31 34 33 33 34 35 34 34 33 34 30 29 35 28 25 26 28 31 32 34 35 35 36 37 37 36 36 33 33 30 28 30 33 35 37 30 28 29 36 20 21 27 27 22 23 21 20 18 18 20 21
17 16 18 20 21 22 21 20 22 25 26 28 31 32 31 32 32 34 34 32 31 32 32 33 24 24 23 25 26 27 29 30 28 33 37 36 35 34 32 33 30 25 27 30 31 32 31 30 23 28 25 23 26 24 20 23 21 22 21 20 21 22 22
16 17 18 19 20 21 20 24 25 25 25 27 30 31 30 30 32 32 33 33 32 31 31 31 23 21 23 23 25 28 29 31 31 32 36 34 33 35 35 32 28 24 27 29 31 30 28 26 28 18 22 23 25 21 22 22 20 22 22 20 19 17 19

ECMWFFLT1_sfc_gust_015.txt.gz
Wind_Gust
12 10 7 5 3 3 5 3 2 4 2 3 3 4 2 3 4 5 5 6 5 6 5 6 5 6 7 7 6 4 6 6 7 12 11 8 13 15 8 14 15 10 10 16 16 9 8 11 14 8 8 10 12 16 16 13 15 16 15 14 16 16 15
11 10 8 7 5 4 4 2 1 1 1 1 2 2 1 2 2 4 2 4 5 5 6 8 7 8 7 7 9 11 9 8 6 8 9 9 9 15 7 9 8 14 12 18 17 10 17 14 15 15 15 10 8 11 14 15 13 14 15 17 17 17 15
10 8 8 9 7 6 5 4 4 4 5 5 4 2 2 2 2 2 3 4 3 5 7 9 8 10 10 10 10 8 8 8 7 7 7 7 8 10 10 8 10 10 12 16 18 18 15 14 19 15 9 8 13 14 10 13 15 12 13 14 17 19 17
9 10 9 8 8 6 7 6 4 6 4 5 4 3 5 4 3 1 2 3 4 4 5 7 8 9 9 10 11 11 11 9 10 8 8 9 10 10 10 12 14 15 18 20 19 18 19 18 16 21 22 20 15 12 11 12 15 17 13 13 16 16 16
11 11 13 12 10 10 7 9 8 4 3 4 5 4 4 5 5 4 3 1 1 3 5 5 6 8 9 9 9 8 10 11 11 12 11 10 9 11 12 11 14 13 13 16 17 14 15 18 16 18 18 16 16 18 8 6 4 6 12 13 14 16 15
11 11 11 12 10 11 9 6 6 9 6 5 5 5 2 1 4 2 1 2 3 4 5 4 4 5 6 9 10 9 10 10 11 11 12 10 9 11 12 11 13 15 16 14 13 12 10 11 14 21 21 13 17 13 9 4 11 4 4 5 6 11 14
11 10 9 10 10 10 10 10 10 8 6 5 4 4 5 2 1 1 1 2 2 3 5 6 6 6 6 8 9 13 13 12 10 10 11 11 10 10 9 10 12 14 16 15 15 14 13 12 14 17 19 15 11 18 12 7 5 8 8 10 10 11 13
11 10 10 9 10 9 8 9 9 7 8 5 5 3 2 2 2 2 2 3 5 6 5 6 8 8 8 9 8 9 12 13 13 13 12 13 16 13 11 11 13 12 13 15 15 17 16 17 17 14 15 17 15 10 12 10 7 10 11 7 7 10 14
9 9 8 7 8 10 8 8 7 6 6 5 3 2 1 2 1 2 2 3 4 5 6 6 5 5 6 8 8 8 9 9 12 12 13 13 15 14 14 13 11 12 12 13 14 14 14 15 15 13 13 14 18 21 10 13 11 13 7 12 7 6 6
11 10 11 8 8 9 8 7 7 5 4 3 3 3 1 1 2 3 4 4 5 5 5 5 5 5 5 6 9 10 12 11 11 13 16 17 15 15 14 13 13 13 12 13 14 15 15 15 16 15 14 18 15 19 21 17 14 16 8 11 9 7 7
12 11 10 10 8 9 7 6 6 4 3 3 4 4 3 2 1 3 3 5 6 6 8 8 9 10 9 10 10 11 10 9 11 11 11 13 14 12 13 14 13 15 13 12 13 12 14 16 16 17 16 15 13 20 19 19 21 13 9 6 12 14 5
11 10 9 9 9 10 8 7 6 6 5 4 4 2 1 2 3 5 5 6 6 6 6 7 7 8 8 10 10 11 10 8 9 13 14 14 15 15 14 14 12 14 13 13 13 13 12 12 13 16 18 16 16 17 20 18 24 19 14 15 11 6 6
11 11 10 9 10 8 8 7 7 5 7 5 4 3 3 3 4 6 6 6 6 6 6 6 6 8 9 9 10 10 10 9 9 12 14 14 15 14 14 15 14 14 13 13 13 13 14 14 13 14 17 18 18 17 16 23 25 27 14 14 11 9 10
11 10 9 9 8 8 6 7 7 6 5 4 4 3 4 5 6 6 6 6 5 6 6 7 6 6 7 8 9 8 8 10 11 12 13 15 14 14 13 14 15 14 11 13 14 14 15 15 15 15 15 16 17 18 21 21 24 24 19 8 9 12 10
11 10 10 8 9 7 7 7 6 5 5 5 4 5 5 5 6 6 7 8 7 6 7 7 6 5 7 8 10 11 11 11 11 11 9 11 13 15 14 15 16 15 15 16 13 15 15 15 15 16 16 17 18 20 18 24 22 23 26 9 12 5 10
11 10 10 9 9 8 7 6 6 6 5 5 5 6 6 6 7 7 6 6 6 6 7 7 6 6 8 9 11 10 10 11 12 12 12 12 12 13 15 16 18 17 16 18 18 16 12 13 14 16 17 16 18 18 17 20 21 22 21 21 11 12 10
12 10 10 9 9 8 7 6 5 6 6 5 6 6 6 6 5 5 6 6 6 7 7 7 7 5 7 8 10 13 14 15 14 13 13 13 12 12 13 14 16 17 18 17 17 18 17 13 14 15 15 15 17 19 18 17 21 22 21 23 13 17 14
12 11 10 8 9 8 7 6 6 6 5 5 6 5 6 5 6 5 7 7 7 7 6 6 5 5 6 7 10 11 11 11 12 14 15 16 13 14 13 13 13 13 16 20 19 19 18 17 16 15 17 15 15 17 17 17 19 22 23 22 17 16 16
12 11 10 9 8 8 7 6 6 5 6 6 5 5 5 5 6 7 6 8 7 7 6 7 7 7 8 10 12 14 14 13 13 13 13 13 14 15 16 16 15 15 16 18 19 19 18 17 17 16 14 15 16 14 16 16 17 20 23 23 20 15 15
12 10 10 9 9 7 7 6 6 6 6 6 5 5 4 4 4 4 6 6 7 8 8 7 8 8 8 10 11 11 13 13 14 15 14 15 14 14 14 15 17 16 17 16 17 18 18 18 18 16 16 15 14 14 14 15 16 20 21 22 21 18 17
11 11 10 9 9 8 7 6 6 6 5 4 4 3 3 4 5 6 9 9 9 10 10 11 10 11 11 12 13 13 13 14 14 14 12 13 14 16 16 15 13 14 16 16 16 16 17 20 18 17 16 16 16 16 16 14 14 18 22 22 23 19 18
10 10 10 9 8 7 7 6 6 5 4 4 3 3 4 5 6 4 4 5 7 8 10 11 10 11 12 14 14 14 13 14 16 18 18 18 18 18 18 17 16 14 16 16 17 17 16 15 20 23 23 19 18 18 17 15 14 14 19 22 23 19 15
11 10 9 9 8 7 7 6 6 5 5 5 4 4 4 4 3 4 6 7 7 9 11 12 13 17 15 15 13 14 14 15 15 16 18 20 20 19 18 19 20 20 20 19 19 18 19 20 21 20 20 19 21 21 20 18 18 15 18 23 25 22 21
11 10 9 8 7 7 7 7 6 6 5 3 3 3 1 4 3 3 4 4 6 7 9 12 16 17 18 19 17 14 14 15 14 15 15 17 19 20 20 20 20 19 20 17 19 17 16 19 20 23 24 21 19 23 22 22 22 18 18 19 19 23 26
10 9 9 8 8 8 8 7 6 4 3 2 2 3 5 4 3 2 3 3 4 6 8 10 15 17 18 19 17 19 16 16 16 16 17 18 19 20 20 21 19 19 21 21 21 20 19 18 18 19 21 21 22 23 21 25 24 22 20 20 20 19 19
10 9 9 9 9 8 7 6 5 3 2 3 2 5 5 2 2 2 3 4 5 6 8 10 15 16 17 17 19 20 20 19 19 19 19 20 21 22 21 21 22 21 22 21 24 21 20 19 17 20 21 22 23 24 24 23 24 28 23 22 23 22 20
10 8 7 7 6 6 6 6 4 3 3 3 3 4 2 1 2 3 3 6 7 7 11 11 15 15 15 16 16 17 19 20 20 20 19 20 21 21 22 24 25 24 20 19 20 21 20 20 19 21 23 22 21 19 20 24 24 28 27 27 24 26 23
8 7 6 5 4 4 5 4 3 4 5 4 6 4 2 2 2 4 5 7 8 11 12 13 15 16 16 17 17 15 16 17 20 20 20 18 20 21 21 24 24 26 24 23 22 20 21 21 21 23 22 22 23 23 24 23 21 17 21 22 24 25 24
7 6 4 3 3 3 3 2 2 3 4 7 4 3 1 1 3 5 6 7 10 13 13 13 14 14 15 14 15 15 15 18 20 21 23 22 22 23 22 23 24 24 24 25 22 22 23 24 23 26 26 25 25 25 27 20 20 23 21 23 23 25 25
6 4 4 5 4 4 5 3 4 3 7 3 2 1 2 3 5 7 8 8 9 11 11 11 14 16 17 19 17 18 18 20 21 22 23 21 23 23 24 23 24 26 23 23 18 20 22 19 25 28 27 27 26 26 29 25 21 24 25 24 25 26 27
6 6 8 8 7 6 6 4 4 4 7 3 2 1 3 4 6 6 7 8 10 14 15 15 17 19 20 20 18 19 17 19 21 22 24 23 23 25 25 27 30 29 27 24 17 19 20 21 26 27 26 27 28 28 31 25 25 27 22 22 24 24 25
8 7 8 8 9 7 5 4 4 7 6 5 4 5 6 8 7 8 8 9 12 18 17 16 15 16 17 15 14 13 16 19 23 23 25 27 24 26 26 22 28 29 28 26 23 22 20 19 23 23 23 25 30 31 29 21 24 24 24 23 21 17 18
11 11 7 6 7 5 3 6 8 7 5 6 5 6 6 8 9 10 9 11 14 14 17 17 16 18 17 17 16 19 18 22 24 25 26 29 30 28 27 27 25 23 26 27 27 27 26 25 27 24 22 26 28 32 20 20 24 21 17 18 21 19 21
9 7 6 4 4 2 3 9 8 6 6 5 3 4 6 7 10 13 12 13 15 16 16 18 17 17 18 20 22 21 21 22 24 26 27 29 29 30 29 28 26 21 24 24 24 25 26 26 27 31 30 33 32 24 14 21 25 20 24 22 22 22 22
6 5 5 5 3 1 5 10 8 7 5 3 3 3 5 7 9 13 14 15 16 17 16 18 19 18 20 22 23 23 23 22 24 27 31 30 30 30 30 29 27 23 23 25 24 25 26 26 29 33 36 30 27 25 30 25 22 22 26 25 23 24 24
5 6 5 5 5 2 6 8 6 5 5 3 3 5 7 9 10 14 16 16 15 16 17 17 17 20 20 22 23 22 24 26 25 36 30 31 28 30 27 28 27 24 25 25 24 25 26 29 27 33 30 28 28 28 26 27 25 25 25 25 24 26 25
10 8 6 4 1 3 7 6 5 4 3 1 3 6 10 9 10 14 18 20 17 16 16 18 16 19 21 22 23 25 26 28 28 32 30 30 29 29 29 28 27 24 25 25 26 26 26 26 30 27 27 28 28 25 28 26 24 25 23 24 25 26 26

ECMWFFLT1_sfc_gust_021.txt.gz
Wind_Gust
11 10 6 5 3 2 3 1 1 1 3 2 1 2 2 3 4 5 6 7 8 7 9 10 9 6 8 8 8 7 8 10 8 8 6 8 8 10 7 7 3 4 7 7 8 9 10 13 17 15 10 6 6 3 5 8 10 12 10 11 13 14 14
7 6 5 3 6 2 3 1 1 2 3 4 4 2 3 2 3 5 5 6 7 6 8 9 8 9 9 9 11 12 10 8 7 4 5 6 6 6 10 5 5 4 3 5 7 8 11 9 13 10 16 10 6 9 6 5 7 7 10 13 15 15 15
5 4 4 7 6 3 6 1 1 2 2 2 1 2 3 4 5 5 5 5 5 5 6 6 7 9 8 8 6 6 6 7 5 5 5 4 4 4 4 6 8 8 7 5 6 6 10 10 18 16 11 13 18 13 5 7 6 6 9 11 11 12 13
7 8 7 5 4 2 6 4 2 3 2 2 3 2 1 1 3 3 5 5 4 6 7 6 6 6 6 6 5 6 6 6 7 6 6 4 5 6 5 4 6 7 11 11 10 8 9 12 14 14 11 11 14 19 17 9 8 9 9 9 12 13 14
10 10 12 11 9 8 7 7 4 1 3 4 3 3 2 3 3 5 5 5 6 6 5 4 4 5 4 5 5 5 4 4 4 6 5 7 7 6 5 5 4 4 4 8 10 11 14 13 13 16 15 12 12 15 15 13 10 13 13 13 14 15 17
10 11 11 10 8 10 9 6 4 5 2 2 3 2 4 3 3 5 5 5 5 3 3 5 4 5 6 5 5 5 3 3 3 3 5 4 4 5 6 5 5 5 5 4 5 9 10 13 13 18 16 12 18 20 13 8 17 8 8 11 12 14 14
11 11 11 12 10 9 10 10 9 9 7 6 4 5 5 1 3 4 6 5 4 3 3 3 4 4 5 5 5 5 5 3 2 2 1 1 2 3 3 5 6 6 7 6 7 6 9 13 15 14 18 15 11 16 14 9 7 15 12 9 9 10 11
12 12 12 11 11 10 8 8 8 5 8 7 8 6 2 2 4 5 5 5 4 5 5 5 4 4 4 5 5 4 5 5 5 5 4 2 3 3 3 3 4 5 6 7 6 7 7 9 13 14 17 22 19 13 14 9 10 11 20 17 9 8 11
10 10 9 8 8 9 11 11 9 8 8 6 4 4 3 5 5 4 2 3 4 5 4 4 5 5 5 5 5 5 7 4 5 6 7 5 5 4 4 4 3 5 6 7 6 8 8 8 10 11 16 17 22 27 15 17 11 14 8 17 10 8 9
11 12 14 11 10 9 9 9 9 9 6 5 6 5 6 3 5 5 4 3 3 2 3 4 4 5 5 5 5 5 6 5 3 4 5 5 7 6 5 5 6 6 6 6 6 7 8 9 9 9 10 16 17 23 26 21 18 18 9 7 12 9 7
15 13 12 12 10 10 7 7 5 5 7 7 7 6 6 6 4 5 4 2 4 5 5 6 6 6 4 5 4 5 6 4 5 4 3 3 5 5 6 7 6 8 6 5 7 6 5 7 9 10 10 11 13 19 20 26 27 14 17 7 8 15 6
13 12 11 10 10 11 11 10 9 9 5 6 8 7 5 5 4 3 3 2 4 4 5 6 6 7 6 6 6 7 6 4 3 4 6 4 4 3 5 6 7 9 8 7 7 7 6 5 6 8 9 9 13 15 22 21 30 20 13 16 11 7 8
14 14 12 12 13 12 11 10 9 6 10 8 7 6 6 5 4 3 2 1 1 3 5 6 5 6 6 6 7 9 9 7 6 5 5 5 6 5 5 5 6 7 8 7 7 7 8 7 6 7 7 8 9 12 16 24 24 28 14 14 13 11 9
14 13 12 12 14 12 10 10 11 10 8 8 8 7 6 6 5 3 2 1 2 3 3 6 6 5 5 6 8 6 8 7 7 9 7 7 6 6 7 7 6 6 6 6 9 9 8 8 8 8 7 7 8 7 11 18 21 21 22 8 14 15 12
16 14 14 14 14 13 12 12 11 9 10 8 9 9 8 6 4 4 3 3 3 3 4 6 6 3 5 6 8 7 8 7 7 8 7 10 10 9 6 8 9 7 5 6 6 8 8 9 8 9 9 8 7 9 6 13 15 18 22 17 10 9 12
15 15 16 15 14 14 13 11 11 14 11 10 7 10 9 8 7 5 4 4 4 4 5 5 3 2 5 5 6 7 7 7 7 10 11 12 12 12 12 11 10 8 7 6 6 6 6 8 9 9 10 8 9 9 8 8 13 18 18 22 12 14 11
16 17 18 17 16 14 14 12 12 13 12 11 12 7 9 9 7 6 6 4 4 4 2 2 3 2 3 3 4 5 5 5 6 7 8 10 11 11 12 12 13 11 8 7 7 6 5 5 8 9 9 9 9 10 9 8 9 13 15 22 14 11 11
19 19 19 16 15 14 13 13 12 13 12 11 10 10 6 6 7 7 8 6 5 3 3 3 2 1 1 1 1 2 2 2 3 5 6 7 8 9 10 11 12 10 8 8 7 8 6 6 5 6 7 8 9 10 10 9 10 10 11 15 17 12 10
20 21 17 14 15 15 15 14 14 11 13 12 9 9 10 7 8 8 6 5 5 5 5 5 5 3 2 2 2 2 3 3 3 5 6 6 7 7 8 9 9 9 9 10 11 10 9 8 7 6 6 8 9 9 10 10 9 10 10 12 12 18 6
19 15 15 15 15 15 15 14 14 14 11 12 11 9 7 7 6 7 6 7 7 7 6 5 5 5 4 3 2 2 4 5 5 6 6 8 8 8 9 9 9 9 10 9 10 10 11 10 9 8 7 8 9 9 10 9 8 8 10 12 13 11 12
15 14 13 15 16 15 15 14 13 12 11 11 10 10 10 9 7 6 8 8 7 7 6 5 4 4 3 3 3 4 5 6 7 7 7 9 9 10 10 10 10 10 11 10 10 10 9 11 9 10 9 8 9 10 10 9 9 8 9 11 12 14 11
14 14 15 15 15 15 15 14 12 12 11 10 10 10 9 9 9 7 6 8 7 5 6 4 3 3 4 5 4 6 7 8 9 10 10 10 10 11 10 11 11 11 12 15 15 14 12 11 13 15 12 8 10 10 10 9 10 9 9 9 13 10 14
17 16 16 17 16 15 14 13 12 11 10 10 9 9 9 9 10 10 9 6 5 4 2 2 4 7 6 6 6 7 8 9 9 10 11 12 11 11 12 12 12 16 17 17 16 16 16 16 16 15 15 10 12 12 12 12 13 11 10 13 13 11 14
17 18 17 16 15 15 15 14 13 10 9 9 10 9 10 9 7 7 8 7 4 1 2 3 7 9 10 12 10 8 9 10 8 10 10 12 13 13 12 11 11 12 15 14 17 16 16 17 17 17 17 16 13 15 14 16 16 11 15 16 14 13 15
15 16 16 17 17 16 15 14 13 11 10 9 8 9 8 8 9 8 7 5 3 2 3 6 10 11 12 13 12 13 9 10 10 10 10 11 12 12 13 13 12 12 13 13 14 15 15 16 17 17 17 17 17 17 16 19 19 17 14 15 16 17 15
14 15 17 18 17 17 16 14 13 11 11 9 8 10 9 11 9 7 6 4 2 3 3 7 10 12 13 14 15 14 11 10 11 11 11 12 13 14 14 15 16 14 14 15 19 15 14 15 14 17 19 20 21 19 18 19 20 23 17 18 19 20 19
16 16 13 16 17 16 15 14 11 9 10 9 11 10 10 10 8 7 5 4 2 2 4 7 11 13 14 15 16 14 11 12 12 12 13 13 14 14 14 16 17 16 11 12 13 14 13 14 15 17 17 17 18 18 17 19 20 22 21 23 20 23 18
15 8 11 13 12 13 11 11 10 10 12 12 13 13 12 10 7 7 5 5 2 3 6 9 12 14 14 16 17 15 13 13 13 13 14 13 14 15 14 16 15 17 14 12 12 12 13 14 16 18 18 19 18 18 18 17 16 16 17 17 19 21 20
16 19 20 13 12 12 12 12 13 11 11 10 9 10 7 9 8 6 4 3 2 5 8 10 12 13 16 16 18 16 13 14 15 15 15 13 14 14 14 14 15 15 14 13 12 15 17 18 18 20 22 21 20 19 20 14 16 18 20 19 18 17 17
18 18 19 17 15 15 15 13 11 10 14 11 11 9 9 6 6 5 3 3 4 6 6 10 13 15 16 18 15 15 14 16 16 16 17 14 15 15 14 13 14 17 17 17 15 16 17 15 18 21 22 23 22 21 23 17 17 21 23 25 26 25 23
20 17 17 17 17 14 14 12 12 11 15 12 10 9 7 6 3 4 4 5 5 5 7 10 14 16 17 17 17 18 16 17 18 17 18 15 14 15 14 20 22 20 19 19 15 17 17 17 19 20 21 23 24 24 23 15 17 18 16 21 23 24 24
20 20 17 17 16 15 13 14 11 9 12 12 11 8 6 6 5 4 5 6 8 6 7 10 13 16 17 18 18 15 16 17 19 18 18 19 15 16 17 16 23 24 21 21 21 21 21 19 21 20 20 22 25 24 21 12 19 17 15 17 18 17 19
21 22 18 15 13 14 12 13 12 12 10 11 12 8 7 6 5 5 4 3 5 5 7 10 12 16 17 18 18 19 16 18 20 21 19 23 23 18 17 18 21 18 22 23 24 25 24 23 25 23 21 25 24 26 10 14 18 17 19 20 20 18 20
22 20 17 17 15 13 12 13 10 11 10 7 7 7 5 3 3 6 5 4 4 6 7 11 13 16 18 19 20 18 17 18 20 22 21 20 17 18 18 20 18 16 22 24 24 25 26 26 25 29 25 26 25 22 17 22 21 16 22 20 21 21 21
16 17 14 16 15 10 7 10 11 9 9 8 7 7 4 4 4 5 5 5 5 7 9 11 15 15 18 20 20 21 21 19 19 22 23 21 20 20 19 18 16 15 20 24 25 26 27 26 27 28 29 22 24 23 27 25 25 23 24 23 23 23 22
14 14 14 14 15 12 9 9 7 8 8 6 6 5 3 3 3 5 6 8 6 7 10 10 14 17 18 20 21 22 22 22 20 30 24 26 23 24 21 23 27 27 27 27 27 27 27 28 26 29 26 26 27 27 27 28 25 26 27 26 25 26 25
14 14 14 14 13 13 9 8 7 6 8 8 6 3 6 4 3 5 7 9 9 10 10 11 11 17 20 21 21 23 23 23 23 23 24 25 24 22 21 20 21 22 24 26 28 28 28 28 31 27 28 29 27 26 29 26 24 25 25 26 27 28 27

ECMWFFLT1_sfc_gust_024.txt.gz
Wind_Gust
10 11 7 6 3 5 6 3 2 3 4 4 4 5 5 6 8 7 8 9 10 9 11 11 10 6 8 8 8 8 9 10 9 10 8 8 7 7 9 10 8 5 5 6 6 6 7 11 14 7 4 7 7 4 5 5 5 7 7 7 10 10 10
6 4 4 4 7 5 6 2 3 2 4 5 6 5 4 5 6 8 8 9 10 8 9 9 8 8 9 8 9 10 9 10 9 7 9 8 7 7 7 8 7 9 9 5 8 5 6 6 7 6 13 10 7 6 4 5 7 6 8 9 11 11 11
4 2 4 7 6 4 7 3 2 4 4 5 6 6 6 5 6 7 9 9 9 8 8 8 7 9 8 9 7 8 7 8 7 8 9 7 7 6 6 5 7 6 6 5 6 11 7 5 10 11 10 11 14 8 8 10 9 8 8 8 8 10 11
7 7 6 3 3 3 7 5 4 4 2 2 5 5 5 5 6 6 9 8 8 8 9 9 8 9 8 8 7 7 8 8 7 8 8 6 5 6 7 7 7 7 5 5 6 7 6 7 11 10 10 10 12 17 10 6 10 12 10 7 8 8 10
12 11 12 11 9 8 7 8 5 3 3 1 2 4 4 4 7 7 7 8 9 9 9 7 7 8 8 8 8 8 7 6 5 7 6 7 6 5 6 6 6 6 6 5 7 6 5 6 7 10 10 11 11 10 10 10 10 11 10 9 8 9 10
12 12 12 11 9 10 9 6 6 7 5 4 2 5 2 3 6 8 7 9 8 7 8 8 7 7 8 8 8 8 7 7 7 7 7 5 6 6 5 4 3 4 4 5 5 6 6 6 8 10 9 8 13 15 12 10 14 8 10 11 10 9 10
12 12 12 13 12 10 11 11 11 11 10 9 8 7 7 6 5 7 8 8 6 5 6 8 8 7 7 9 7 8 7 4 6 6 6 6 7 6 6 7 7 5 5 5 6 6 7 7 8 8 10 9 8 14 12 9 6 13 9 7 7 8 9
12 12 12 12 13 11 9 10 9 7 10 9 11 7 7 7 8 8 8 9 6 6 5 7 8 7 7 8 7 7 6 5 5 6 6 6 8 8 8 7 8 8 8 7 5 7 7 8 8 9 9 14 12 9 11 9 10 11 17 9 9 10 11
10 9 9 8 9 11 12 12 12 10 10 8 5 8 7 10 10 9 7 8 7 6 6 7 7 7 7 8 7 6 7 3 6 6 6 6 7 7 7 6 7 8 9 9 8 8 7 7 9 8 9 10 14 18 9 16 11 12 9 13 9 10 10
11 12 14 13 13 11 10 11 11 12 7 6 8 6 10 7 10 10 9 8 7 7 7 7 7 6 6 7 6 5 6 4 4 4 3 4 5 5 6 6 5 7 8 8 8 9 9 8 7 9 8 9 9 14 16 14 14 14 6 6 10 8 6
14 13 11 12 11 11 10 9 7 7 10 10 10 9 10 10 8 9 10 7 7 6 7 6 7 7 7 6 4 4 4 4 4 4 3 1 3 3 3 6 5 7 7 7 8 8 8 9 10 9 8 9 9 11 11 14 21 11 14 8 11 15 7
11 11 11 9 9 12 13 12 12 13 8 8 10 10 10 10 9 9 9 9 7 8 7 7 7 8 6 6 2 3 4 4 4 3 3 2 3 3 5 5 6 7 7 7 8 8 8 8 9 9 10 9 9 10 13 12 20 13 7 9 9 8 10
12 12 12 12 13 13 13 13 12 9 12 11 11 12 12 11 11 10 9 10 8 7 7 7 7 8 7 6 5 4 4 3 3 3 6 6 6 7 6 7 7 7 8 7 8 8 8 8 7 8 9 9 10 9 10 13 17 26 9 12 12 12 13
13 12 9 11 13 14 11 12 13 13 10 11 12 12 11 11 11 10 8 7 7 6 5 6 7 7 7 6 6 4 5 5 6 5 3 6 5 6 6 7 9 9 8 8 9 8 9 8 8 8 8 7 9 9 10 12 18 21 18 7 10 10 10
14 13 13 12 13 13 11 12 11 9 12 11 12 13 12 10 9 9 7 6 6 6 5 7 6 7 7 5 4 5 6 7 7 6 5 5 5 5 5 6 7 9 9 9 9 10 9 9 8 9 9 7 8 9 7 11 13 16 24 14 11 8 10
14 13 14 14 15 15 13 10 9 12 12 11 9 11 11 10 9 7 6 6 5 5 5 6 6 7 7 5 3 4 5 7 6 6 5 2 4 4 6 7 8 8 7 8 9 9 8 8 7 8 9 8 8 8 8 7 11 15 16 22 12 13 9
13 15 16 17 16 14 12 10 10 11 11 11 13 8 9 10 8 7 6 4 4 4 5 5 5 5 7 7 7 6 6 7 6 5 4 3 4 4 5 7 8 8 8 9 9 8 8 8 9 9 9 8 7 8 7 6 7 11 12 20 15 15 13
17 17 19 17 15 11 10 11 10 11 11 11 10 11 8 8 9 8 8 6 5 4 5 5 5 4 4 5 6 6 5 4 3 3 4 5 5 5 6 7 8 7 7 9 10 10 9 9 9 10 10 10 10 10 9 8 9 8 11 16 18 13 11
18 20 20 17 15 13 13 12 13 10 12 13 10 10 12 9 11 10 7 7 7 7 6 6 6 6 5 5 5 4 2 1 3 4 5 6 7 7 7 8 9 8 8 9 10 10 9 10 9 10 10 11 11 10 10 10 10 10 11 14 14 20 10
20 19 18 17 14 14 16 16 16 16 13 14 14 12 9 11 7 9 8 9 9 9 8 7 5 4 5 6 4 2 2 4 6 6 6 8 8 8 9 9 9 9 10 9 10 11 11 10 11 10 10 10 9 10 12 12 11 12 12 13 14 14 16
9 10 10 11 15 16 17 17 18 15 15 15 14 13 13 12 9 7 10 9 8 8 8 7 6 6 5 3 2 3 5 5 7 8 8 9 8 9 9 10 10 10 11 11 11 11 11 12 10 10 9 9 10 11 12 12 12 12 13 13 15 17 15
7 7 8 10 8 16 18 18 17 17 15 14 12 12 11 11 11 8 6 8 9 8 9 7 6 5 3 2 1 4 6 7 8 9 9 9 9 9 9 9 10 11 13 14 15 14 12 11 12 13 11 10 11 13 13 12 13 12 13 16 17 13 17
11 15 15 16 18 18 16 13 15 16 14 12 12 10 10 8 10 11 11 9 8 8 7 5 5 6 4 2 4 4 5 7 8 9 10 11 10 10 10 10 11 16 17 17 17 16 16 16 16 16 15 11 12 13 14 14 15 13 17 22 19 15 20
11 13 14 14 12 12 14 18 19 18 15 11 11 10 10 10 8 9 11 12 10 8 6 5 5 4 4 5 3 3 5 7 7 9 10 10 12 12 11 11 10 12 15 14 17 16 16 17 17 18 18 18 14 16 15 16 16 13 17 19 18 20 21
11 12 13 14 15 16 18 18 18 16 15 13 10 12 11 10 11 10 11 10 9 8 6 4 4 4 4 6 7 6 5 7 8 9 10 11 12 12 13 13 11 11 12 14 16 16 16 16 17 18 18 18 18 19 17 18 18 17 15 19 19 19 20
12 13 14 12 11 12 13 11 11 14 15 12 12 14 12 12 12 10 12 12 9 6 5 4 2 3 6 7 9 8 6 7 9 10 11 12 12 13 13 14 14 12 12 15 19 15 15 16 14 17 18 18 18 18 17 18 18 20 17 20 22 23 22
12 12 10 10 12 14 16 17 16 13 13 11 13 14 13 13 11 11 10 10 9 7 5 3 2 4 7 9 10 9 7 9 9 11 12 13 14 14 14 15 15 15 12 12 13 15 15 17 17 17 17 16 16 17 16 19 19 21 21 23 21 25 21
10 10 12 14 14 16 16 15 15 15 16 16 16 18 17 14 10 10 8 9 9 5 4 3 2 5 7 10 11 9 8 9 10 11 12 12 14 14 14 15 15 16 15 14 13 14 16 15 16 18 17 18 18 18 18 17 16 17 18 20 21 23 22
11 12 14 16 16 16 16 18 17 15 14 13 13 14 10 12 12 10 8 7 6 3 3 3 4 6 8 10 11 9 9 10 11 13 14 13 13 13 13 14 15 18 19 17 13 15 17 20 21 20 21 21 21 20 21 13 16 18 20 21 20 21 20
13 14 16 18 18 18 17 15 14 15 19 17 16 15 14 10 11 11 9 7 7 4 3 5 4 6 8 11 9 10 10 11 12 14 15 14 14 13 13 14 17 19 16 18 15 15 15 16 21 22 23 23 23 22 23 15 16 19 21 23 24 24 23
15 15 17 19 18 17 17 16 17 17 22 19 16 13 12 11 9 10 10 8 8 7 6 6 6 7 9 10 10 10 11 12 14 15 16 13 13 13 15 23 23 21 18 20 13 14 14 18 23 24 24 27 30 29 25 16 17 17 15 20 23 24 25
15 13 12 11 10 18 21 21 16 16 18 16 15 12 11 11 8 5 5 7 9 7 6 5 6 8 9 11 11 9 11 11 15 16 17 19 14 17 17 14 20 24 24 23 20 20 20 23 27 26 29 30 33 31 27 21 24 20 19 20 22 22 23
17 20 23 21 21 20 15 13 15 15 13 14 14 11 10 10 10 6 4 5 5 6 6 6 6 9 9 11 12 13 10 12 16 18 18 17 18 15 18 20 21 19 21 22 22 23 22 23 27 29 28 32 33 34 23 22 22 23 26 25 25 23 24
17 14 19 23 23 22 20 19 12 13 12 10 12 9 7 6 5 5 4 4 5 6 7 7 8 8 10 11 12 12 10 13 16 19 21 20 17 22 23 22 20 16 20 22 23 25 25 25 24 27 27 34 34 34 26 27 30 21 29 28 28 28 28
20 21 16 17 18 17 14 14 14 15 13 13 12 10 6 6 4 2 3 5 6 8 8 9 7 9 11 12 13 13 12 13 16 22 20 21 24 23 22 22 20 18 18 20 21 22 24 24 25 29 31 24 26 25 37 28 28 29 29 29 28 28 28
21 20 22 22 20 15 12 14 11 11 12 10 11 10 8 6 3 2 5 7 7 8 8 7 9 10 11 13 13 14 15 15 15 23 20 24 23 25 22 23 25 24 22 22 24 25 26 28 26 31 27 28 28 28 29 27 25 29 32 30 30 30 28
19 17 18 18 19 17 12 12 10 8 9 11 10 9 6 5 3 2 5 10 10 9 7 6 9 12 13 14 14 15 15 16 17 18 21 23 25 24 24 23 24 22 26 27 29 30 30 29 32 29 30 30 30 28 29 31 28 31 29 32 30 32 31

ECMWFFLT1_sfc_gust_027.txt.gz
Wind_Gust
11 12 10 9 7 8 11 10 10 9 9 10 11 11 12 13 13 14 14 14 15 14 14 15 15 13 12 12 12 12 12 12 11 11 10 10 8 8 10 10 10 9 7 9 7 7 4 8 7 6 8 7 7 8 7 8 8 8 8 8 10 11 12
7 9 10 10 10 9 10 9 9 10 10 9 10 11 11 14 14 14 14 14 14 14 15 15 14 15 14 13 13 14 13 13 12 10 10 11 10 10 8 9 9 9 8 7 10 9 7 6 10 8 10 8 7 12 9 11 10 10 8 10 11 12 11
9 9 10 11 10 10 12 11 10 10 10 10 10 11 12 14 14 15 15 15 14 14 14 16 15 15 14 15 14 14 13 13 13 13 12 11 11 11 11 9 9 8 6 7 8 10 7 7 8 9 11 13 11 7 9 11 14 13 14 14 13 11 11
11 12 12 11 11 10 12 12 12 12 11 11 10 10 10 13 12 13 14 14 14 13 15 14 14 15 15 14 14 14 14 14 14 13 13 13 11 12 12 12 11 10 9 8 10 9 9 10 12 12 11 10 12 15 10 9 12 13 13 14 13 11 12
14 14 15 15 14 14 13 13 11 12 12 12 11 11 11 11 12 13 13 14 15 14 15 14 14 15 14 14 14 13 13 12 12 12 12 13 12 12 12 11 11 10 9 9 9 9 10 12 12 16 16 15 15 13 10 11 14 14 11 10 11 12 15
13 14 14 14 14 14 13 13 12 14 14 14 13 14 12 12 13 14 13 14 14 14 14 15 14 14 14 14 14 13 13 13 13 12 13 12 13 12 11 10 11 11 11 10 9 10 10 11 12 16 16 15 19 19 16 13 16 13 15 14 13 12 11
13 13 13 14 14 13 13 14 15 15 16 15 16 15 14 14 13 13 13 14 14 15 14 14 14 13 13 15 14 14 13 12 12 12 13 12 13 12 11 11 11 11 11 11 11 10 10 11 12 14 17 18 17 21 18 18 15 17 12 9 10 14 14
13 13 13 11 13 13 12 13 13 12 13 14 16 13 13 13 12 13 14 15 14 14 14 14 14 13 13 14 14 13 12 12 12 12 13 12 14 13 12 12 11 11 11 12 11 11 11 12 14 14 15 19 18 16 17 17 17 16 19 16 15 15 15
11 10 9 9 9 10 13 13 13 12 12 11 10 12 13 13 13 13 14 14 14 13 13 14 14 14 13 13 13 12 12 10 11 11 11 12 12 11 11 10 10 11 11 11 10 11 11 11 12 13 13 14 19 22 16 20 17 18 13 17 15 13 12
12 13 13 12 12 11 10 11 12 12 9 9 10 10 13 12 14 14 14 14 12 12 12 12 13 13 12 12 12 12 11 10 10 11 11 11 11 10 11 10 10 9 10 10 9 10 11 10 10 10 11 13 14 18 21 22 20 19 13 13 16 12 12
15 14 13 12 12 12 12 11 10 9 11 11 11 11 12 13 13 13 14 13 12 11 12 11 12 12 11 12 11 11 10 9 10 10 10 10 10 9 10 10 10 10 11 10 11 10 10 10 10 11 11 11 12 15 18 22 26 17 18 15 18 20 13
14 14 13 13 12 14 15 14 14 14 11 11 12 12 13 14 14 14 14 14 13 12 11 11 11 11 10 11 10 10 8 8 9 10 10 9 9 9 9 10 10 10 11 11 11 11 11 10 10 11 10 10 11 12 16 19 28 20 13 17 15 17 21
16 16 15 14 15 15 15 15 14 13 13 13 13 14 14 15 15 16 14 15 14 13 12 11 11 11 10 9 9 8 9 8 9 9 9 9 9 9 9 10 10 11 11 11 11 11 12 12 11 12 12 12 13 13 14 18 24 30 17 20 24 22 19
16 16 14 15 15 15 14 14 14 14 13 13 14 15 15 16 17 16 17 16 16 15 13 12 11 11 11 10 9 9 9 8 9 8 8 8 9 8 10 10 11 11 10 12 13 13 12 12 12 12 12 13 15 15 16 18 23 27 22 15 19 21 19
16 16 16 16 17 17 15 15 14 13 14 14 15 16 17 16 16 17 17 17 16 16 15 14 13 12 12 11 10 9 9 9 8 9 7 8 8 8 8 10 12 11 11 13 12 16 15 14 14 14 13 12 13 14 13 19 22 24 27 18 19 16 18
18 17 18 18 18 19 17 15 15 16 16 15 15 16 17 17 17 18 18 17 17 16 16 15 13 12 11 11 11 10 9 9 9 8 7 7 8 8 9 10 11 12 11 13 12 13 13 14 15 16 15 15 16 14 15 16 20 23 25 25 19 22 19
15 16 18 20 19 19 17 16 16 18 18 17 18 17 17 18 17 18 18 18 17 16 16 15 14 12 12 11 10 10 10 9 8 7 7 8 9 9 10 11 11 12 12 14 14 15 14 13 15 16 16 16 16 17 16 15 17 22 27 32 21 23 23
16 18 18 17 17 17 15 15 15 19 19 19 19 19 17 17 18 19 19 19 18 17 16 15 14 13 11 10 10 10 10 9 7 7 7 8 6 10 11 12 13 13 13 15 15 15 15 14 16 16 16 17 18 18 17 18 20 21 23 27 28 23 22
16 18 19 18 16 15 15 15 16 16 19 21 21 20 20 19 20 20 20 18 17 16 15 14 13 13 13 12 12 10 9 7 7 7 8 9 10 10 11 13 14 14 15 16 17 16 16 15 16 16 17 18 18 17 17 18 21 23 24 27 26 29 20
17 18 18 18 15 15 15 14 14 13 19 18 19 19 18 19 19 20 19 17 16 16 15 13 13 13 13 12 11 10 8 7 7 8 9 11 12 12 13 14 14 15 16 16 17 17 17 17 17 17 17 17 17 17 18 18 19 20 22 24 26 25 27
17 19 17 16 17 16 15 15 16 17 18 21 22 23 25 22 18 17 17 16 14 13 14 15 15 14 13 12 10 9 8 7 8 9 9 11 12 13 14 15 16 16 16 16 17 18 18 19 18 18 18 17 17 18 19 19 19 20 20 21 24 24 23
17 16 17 18 17 16 15 14 16 17 16 17 18 21 20 20 18 17 17 18 18 16 16 16 14 14 13 12 10 8 7 8 9 10 11 12 12 14 15 15 16 16 16 14 13 15 15 14 21 22 20 19 21 22 21 20 20 20 21 22 23 22 24
18 18 17 17 17 15 14 14 16 17 18 18 19 17 15 16 18 18 18 18 18 18 17 16 13 12 7 11 10 9 7 7 9 11 12 13 14 15 15 16 16 14 13 14 15 15 15 16 17 22 24 22 21 22 22 23 24 23 22 23 22 22 23
15 18 18 17 13 13 15 15 16 17 18 20 19 19 18 16 15 17 18 18 19 17 16 16 15 13 11 6 8 9 9 9 10 11 13 14 16 16 16 17 17 14 15 14 20 15 16 17 17 18 19 19 19 26 24 25 26 24 27 26 23 23 24
14 16 17 18 14 14 14 14 16 16 16 17 16 16 16 16 16 15 14 17 17 18 18 13 15 13 11 8 4 8 8 9 10 12 13 15 16 17 18 18 16 16 17 18 20 21 18 16 18 19 19 19 19 21 21 27 27 27 26 27 29 27 26
15 15 16 17 14 13 15 16 16 16 18 16 15 16 15 16 17 18 19 19 17 17 18 13 14 13 10 9 6 4 9 9 11 12 14 16 17 17 18 18 18 17 18 14 19 20 20 21 15 16 17 18 20 21 21 22 22 30 28 31 31 31 28
16 16 15 17 16 15 16 18 17 15 14 15 15 14 13 15 15 15 16 17 16 16 17 12 13 11 9 7 6 3 8 9 11 13 15 16 16 17 18 19 20 20 18 19 20 20 21 22 22 24 25 25 26 23 19 23 25 25 26 33 34 35 28
17 16 16 17 17 17 17 14 14 14 17 19 18 18 18 17 14 14 14 14 15 14 13 11 10 9 8 6 4 4 8 9 11 13 14 15 16 17 18 19 19 21 20 20 19 19 23 24 25 27 27 27 27 26 27 26 25 26 28 30 33 34 33
17 16 17 18 19 19 16 16 17 15 16 14 12 14 14 16 18 15 14 14 14 14 12 8 7 7 6 5 3 7 9 10 12 14 15 16 17 18 18 19 20 20 21 22 17 14 17 25 26 28 29 28 28 28 28 19 18 20 27 30 31 32 31
19 18 17 19 20 18 16 15 13 16 17 16 17 15 16 16 16 16 15 14 16 15 13 9 8 6 4 3 4 10 11 13 14 15 16 17 18 18 18 19 20 22 22 23 17 13 13 15 26 28 29 29 29 29 29 26 19 17 19 21 23 24 25
20 19 17 20 20 18 13 11 13 14 17 18 18 17 17 14 12 13 14 13 12 13 12 10 7 5 5 4 4 10 13 15 16 17 18 17 18 18 20 19 20 24 24 24 15 11 11 16 26 28 30 32 32 32 30 26 27 25 15 17 20 21 22
20 19 19 21 17 14 14 14 12 12 11 15 17 17 17 15 12 9 9 10 7 10 10 9 7 7 6 5 7 11 14 17 18 19 20 20 18 21 22 18 18 20 23 22 18 17 17 22 29 29 30 31 33 32 30 27 28 27 26 26 26 26 27
20 21 21 14 15 17 19 19 18 19 16 13 17 14 12 13 12 9 7 8 8 8 9 9 11 7 6 7 7 12 15 18 21 21 21 22 26 24 25 26 22 14 14 15 17 18 19 19 27 31 31 33 33 34 28 28 27 28 28 28 28 27 28
20 19 16 18 18 19 19 23 23 24 22 19 16 14 14 13 12 8 7 6 5 5 7 8 9 6 8 9 10 8 15 17 19 21 22 25 28 28 28 26 25 18 16 16 17 18 19 20 20 31 31 33 34 31 26 32 32 23 33 32 33 33 33
17 16 15 18 18 16 14 18 21 19 20 19 19 17 14 13 13 10 6 6 6 9 8 9 11 8 10 11 11 9 14 16 16 21 23 28 28 27 27 26 26 20 17 18 19 20 22 23 24 33 35 27 26 25 36 34 33 31 32 33 32 32 31
16 15 16 18 23 21 17 16 17 19 20 17 17 16 15 13 12 10 7 8 8 9 9 10 10 14 11 11 11 11 11 14 11 19 25 30 28 28 25 25 25 19 17 20 23 26 27 28 27 34 28 27 28 27 29 35 33 34 33 32 31 33 32
17 16 19 22 22 23 21 20 18 12 14 15 14 13 11 9 8 8 7 6 7 8 9 10 7 10 13 11 11 12 12 13 13 18 24 27 27 26 27 25 25 23 26 28 29 28 27 27 36 29 28 29 28 28 35 32 30 31 30 31 30 32 32

ECMWFFLT1_sfc_gust_030.txt.gz
Wind_Gust
11 14 14 13 12 13 14 14 14 13 12 13 12 13 13 13 13 13 13 12 12 13 12 13 12 11 11 11 11 11 11 11 11 9 7 9 10 9 9 8 8 8 9 9 11 9 8 8 7 9 13 12 11 10 13 16 16 14 13 15 15 14 14
12 14 14 14 14 13 13 12 12 13 13 11 13 13 13 15 14 14 13 13 12 12 13 14 13 13 12 11 10 11 11 11 11 10 9 8 10 9 9 7 8 7 7 9 10 9 7 8 9 8 9 11 11 10 8 14 13 12 12 12 14 17 14
12 13 12 14 13 13 13 12 13 13 14 13 13 13 14 15 14 14 14 13 12 12 13 15 14 13 12 12 12 12 11 11 11 11 11 10 9 9 10 9 11 9 11 9 8 7 9 7 12 8 5 6 8 10 8 13 14 12 14 15 17 16 15
13 13 13 14 14 13 15 13 13 13 13 14 14 13 13 14 13 13 12 12 12 11 13 13 12 14 13 13 13 13 12 11 12 11 11 10 9 9 9 9 9 9 10 9 9 9 9 11 11 12 11 12 11 10 11 13 11 15 16 12 13 16 15
15 15 15 15 15 15 14 15 13 13 14 14 14 14 14 14 13 13 12 12 12 11 11 11 12 13 12 12 12 12 13 12 11 11 11 11 9 9 9 8 9 9 8 8 9 8 9 11 11 12 13 12 14 15 9 9 13 16 18 17 19 18 20
17 16 16 14 14 15 15 15 14 15 15 16 15 16 14 14 14 14 12 11 12 11 11 11 11 11 11 11 12 12 12 11 12 11 12 11 10 10 10 9 9 9 8 8 8 9 9 10 12 14 14 14 16 15 14 14 16 14 14 16 19 19 19
17 16 15 15 15 14 14 14 16 15 16 15 16 15 16 16 14 13 12 12 12 12 11 11 11 11 10 12 12 12 12 12 12 11 12 11 11 10 9 9 9 9 9 8 8 8 8 10 11 12 14 15 14 18 17 17 15 16 13 15 15 15 13
16 17 17 15 15 14 14 14 15 14 14 15 16 14 16 15 14 14 13 14 13 12 11 11 11 11 9 10 12 11 11 11 12 11 12 11 11 11 10 11 8 8 9 10 9 10 10 9 11 11 13 15 14 14 16 15 14 14 14 13 14 16 16
15 15 16 16 15 15 14 15 15 14 14 14 15 15 16 15 15 15 15 15 14 13 12 12 11 11 10 9 11 10 10 11 11 11 12 12 11 10 9 9 9 11 11 11 11 10 12 11 11 11 12 14 17 18 13 15 13 13 10 13 12 12 13
16 16 17 16 16 16 15 15 15 15 14 14 15 15 16 15 16 15 15 15 15 14 13 12 12 12 12 10 11 10 10 10 9 10 10 10 11 9 10 9 9 8 10 10 10 11 10 10 11 12 13 14 15 18 18 18 14 14 10 10 13 10 12
18 17 17 16 16 16 16 16 15 16 16 15 15 15 16 16 16 15 15 16 15 15 14 14 13 13 12 12 11 11 11 10 10 10 9 10 9 9 9 9 8 9 10 10 10 10 11 12 13 13 13 13 13 17 18 20 20 15 16 13 15 15 10
18 18 17 16 16 17 18 17 18 18 16 16 17 17 17 18 17 17 15 16 16 16 15 14 14 13 12 12 12 12 11 11 10 10 9 9 9 8 9 9 8 8 9 9 9 10 11 12 12 14 14 13 14 14 17 19 24 16 13 15 14 15 16
19 19 18 17 19 19 19 18 18 17 18 18 18 19 19 19 19 18 17 17 16 16 16 15 14 13 12 11 11 12 12 10 11 11 11 10 10 9 8 8 8 8 9 10 9 10 12 11 12 15 16 15 16 15 16 20 23 24 17 19 18 19 19
18 18 17 17 17 17 17 18 19 18 18 19 19 21 21 21 21 20 20 19 19 17 16 16 14 14 13 13 12 11 12 12 12 11 11 11 10 8 8 8 9 8 8 10 10 12 12 12 14 15 15 16 16 16 18 20 23 24 20 17 18 19 17
18 18 17 17 18 19 18 18 17 18 18 19 19 21 23 22 22 22 21 21 20 19 18 17 16 15 14 14 13 13 12 13 11 11 10 10 9 9 8 9 11 9 10 11 11 15 14 15 16 17 16 16 17 16 15 20 22 24 24 18 19 18 19
19 18 20 19 19 20 20 17 17 18 19 19 20 21 22 23 24 24 23 22 21 20 19 18 16 16 15 16 16 14 13 13 13 12 12 11 10 8 9 9 11 10 10 12 13 13 14 15 15 16 16 17 18 18 18 19 22 24 23 23 19 22 20
18 19 19 19 19 19 21 18 18 18 19 22 23 21 22 25 25 25 24 23 22 21 21 20 19 18 18 17 16 16 15 14 14 13 11 11 10 9 10 11 11 12 13 14 15 16 15 13 15 16 16 16 17 18 18 19 21 23 24 25 21 23 20
20 20 21 20 19 18 18 19 18 19 21 19 19 20 22 23 24 24 24 24 24 23 23 22 21 19 18 17 16 16 15 14 13 12 11 10 7 11 11 13 14 14 15 16 16 16 16 15 18 17 17 18 18 17 17 19 21 22 24 25 24 22 21
17 16 17 18 19 20 20 21 21 20 19 21 20 21 22 22 22 24 24 25 25 25 25 24 23 22 21 19 17 16 15 14 14 13 12 11 11 10 11 14 15 16 17 18 18 17 17 16 17 17 18 19 20 19 18 19 21 22 24 26 24 26 21
17 16 15 16 19 20 20 19 20 21 20 22 22 20 18 24 25 26 27 27 28 27 26 25 24 22 21 21 19 18 16 15 14 12 11 11 10 11 13 15 15 16 17 18 18 18 17 17 17 18 18 18 19 18 19 20 21 21 23 24 24 23 24
12 15 17 20 22 21 21 20 21 21 22 23 23 24 26 26 25 25 26 26 26 25 24 24 23 23 22 21 19 17 16 14 13 12 10 11 10 11 13 15 16 17 17 18 17 17 17 18 18 19 19 18 18 19 20 20 21 22 22 23 24 23 21
11 12 13 15 16 18 21 20 19 21 21 22 23 24 27 28 27 26 26 24 23 22 21 21 22 22 21 20 18 17 15 14 12 10 10 10 11 13 14 14 15 16 15 10 8 10 13 12 21 22 21 20 20 21 21 21 22 22 23 23 24 23 23
13 12 13 15 15 15 17 16 17 18 19 21 22 25 26 26 26 25 25 23 22 19 19 12 13 11 8 18 17 16 14 13 12 9 9 11 12 14 14 15 15 8 8 10 13 14 14 16 16 22 24 21 21 22 22 22 23 23 24 25 24 24 24
13 14 14 15 15 15 16 16 17 18 19 18 18 20 21 24 24 22 23 23 20 16 15 15 15 15 14 9 12 13 13 12 10 10 10 11 13 14 15 16 16 11 12 12 21 20 20 19 18 19 20 20 19 26 24 25 25 23 25 26 25 25 25
14 14 14 16 16 15 15 17 18 18 19 17 18 19 20 22 22 23 25 22 21 19 19 13 16 14 12 10 5 12 11 10 10 10 10 12 14 15 16 16 15 15 16 17 18 19 17 17 20 20 20 20 20 21 20 27 27 27 25 27 27 26 26
16 15 15 15 15 15 16 17 18 19 19 18 18 20 22 23 25 26 24 22 21 22 21 14 16 15 12 9 4 6 11 9 8 8 10 12 14 15 15 16 16 16 17 9 17 21 21 20 14 20 21 20 22 21 21 23 24 31 30 31 29 29 27
17 16 15 15 15 16 17 18 17 18 18 18 19 19 20 22 23 23 21 21 22 23 22 14 16 15 12 8 5 6 10 8 8 10 10 12 13 14 15 16 18 18 17 17 18 19 19 19 20 20 21 23 25 25 27 29 28 27 29 34 32 33 28
17 17 17 16 15 16 16 16 17 18 18 18 20 22 22 23 22 20 21 22 23 21 19 14 14 13 12 8 7 7 8 7 9 9 10 11 13 14 15 16 18 19 19 18 17 14 19 20 21 22 22 23 24 24 24 24 28 30 30 31 32 32 31
17 17 17 17 17 17 16 16 16 16 17 17 18 18 19 20 20 21 21 22 22 22 18 13 13 12 10 8 9 10 7 9 10 11 12 12 14 15 15 16 17 18 18 18 13 5 8 18 22 24 26 26 27 27 27 18 18 17 23 24 25 26 26
18 18 18 18 19 18 17 17 16 16 18 18 18 17 17 17 18 21 21 20 21 20 17 12 12 11 9 8 9 9 8 12 11 12 13 13 15 15 15 16 16 19 19 20 13 6 5 6 24 26 28 28 29 29 30 29 20 18 19 19 18 19 21
20 19 19 20 19 18 17 16 16 17 19 19 17 18 20 20 18 19 20 19 19 18 17 14 12 11 9 6 8 10 11 12 12 14 15 15 16 17 16 9 14 21 21 21 9 4 3 11 26 28 29 30 31 31 31 28 29 26 15 16 18 20 21
21 21 21 20 18 18 19 16 12 13 14 17 18 19 20 22 20 19 17 17 13 17 17 14 11 11 10 8 10 12 13 15 16 16 18 18 16 18 19 14 13 16 19 19 13 13 12 17 27 27 28 29 31 31 30 27 29 29 28 27 26 24 25
21 21 22 20 20 17 14 15 15 15 16 19 19 19 18 19 19 16 15 16 16 16 16 16 16 11 10 8 6 12 14 15 17 18 18 20 22 20 21 20 17 11 8 8 8 9 10 12 24 29 29 30 31 32 27 28 27 27 28 29 29 28 30
22 22 21 22 17 15 15 17 18 20 20 20 20 20 20 18 17 15 13 12 12 10 10 12 15 12 9 8 7 5 15 17 18 20 22 23 24 23 23 21 21 14 7 5 6 9 12 14 15 29 31 32 32 30 24 31 31 21 31 30 31 31 31
22 23 23 21 16 16 17 19 21 21 20 21 21 19 17 17 17 14 10 9 10 9 7 3 10 12 9 6 6 3 12 15 17 21 24 24 24 23 23 23 25 18 11 10 10 12 15 16 18 31 36 25 24 23 34 34 34 32 31 31 30 30 30
24 21 18 15 18 20 20 20 17 19 21 22 22 22 20 19 18 17 15 13 13 13 12 13 6 9 10 5 5 6 6 12 8 19 22 24 23 24 23 25 24 12 10 14 18 21 24 26 24 33 25 23 24 23 24 33 30 32 32 31 31 31 30
20 16 16 18 20 22 21 22 22 22 22 23 23 22 21 21 20 20 19 18 17 15 13 13 12 7 7 6 5 7 8 9 10 17 20 21 23 25 27 25 23 20 24 26 27 26 25 25 34 27 26 26 26 25 34 32 31 31 30 31 31 32 31

ECMWFFLT1_sfc_gust_033.txt.gz
Wind_Gust
13 13 13 12 11 12 12 11 11 10 10 10 9 10 11 10 10 10 9 8 8 9 9 11 10 12 12 11 11 12 12 12 13 14 9 9 6 11 14 13 12 10 8 11 14 11 8 9 7 7 7 7 10 12 12 11 13 15 14 14 15 14 17
15 15 14 14 13 12 11 11 10 11 11 9 11 10 10 12 11 11 9 9 9 8 10 13 12 13 12 12 12 12 11 12 12 10 10 12 13 14 11 7 6 8 11 11 11 9 10 10 10 8 7 7 6 5 9 8 10 12 14 13 15 16 15
16 16 14 14 13 13 12 11 11 11 12 11 10 10 10 12 11 10 11 10 8 11 13 13 11 12 11 12 12 11 11 10 11 11 11 11 10 10 10 10 10 8 8 12 13 12 12 14 12 10 5 7 9 7 8 6 7 13 12 16 17 18 15
15 14 15 14 14 13 14 12 11 11 10 11 11 10 9 11 9 10 9 10 9 8 10 10 10 11 11 11 11 11 13 12 12 11 11 10 9 10 10 12 13 13 11 11 11 11 9 9 10 9 8 9 10 9 12 13 13 15 18 16 16 15 14
15 15 15 15 14 13 13 13 12 12 12 11 10 11 10 10 9 9 8 8 9 8 9 9 8 10 9 10 11 11 11 11 10 11 12 11 10 10 10 11 11 10 10 11 12 9 10 9 9 11 13 11 12 12 6 11 13 13 16 19 18 17 17
16 15 15 15 14 14 14 13 12 13 13 13 12 12 11 10 9 9 8 8 9 9 9 9 10 10 9 10 11 11 11 12 13 12 13 11 12 13 11 9 10 12 12 11 10 11 9 9 10 13 13 12 12 12 13 10 14 15 16 16 19 19 17
16 16 15 15 15 14 14 14 13 12 12 12 12 11 13 12 11 9 8 8 9 9 9 9 8 8 7 9 10 10 10 10 10 10 11 10 11 10 11 10 11 11 11 9 9 8 8 9 10 12 14 13 12 16 14 14 13 14 12 15 14 14 19
17 17 17 16 16 14 13 14 13 12 12 12 14 12 14 12 10 10 9 9 9 9 9 8 9 8 6 8 10 9 9 9 10 10 11 10 11 11 10 11 7 10 11 13 10 11 12 11 10 12 14 15 14 13 14 14 13 13 12 12 13 13 13
17 17 17 16 17 15 13 13 13 12 12 12 12 13 13 12 12 11 11 10 10 10 9 9 9 9 7 6 9 8 8 10 9 9 9 9 10 9 10 9 8 12 10 11 11 11 12 11 10 8 10 12 15 17 15 15 12 13 8 11 10 11 12
17 16 17 15 15 16 15 14 14 14 12 12 13 14 15 14 13 12 12 12 11 10 10 9 9 8 8 7 8 7 7 8 7 8 8 8 8 7 8 8 9 8 10 9 9 10 10 9 11 11 10 11 12 15 16 16 14 13 12 9 12 8 7
18 17 15 15 16 16 16 16 15 16 15 15 15 15 16 16 15 15 14 14 13 12 11 11 10 10 9 9 9 9 9 8 8 9 8 8 7 7 7 9 8 9 10 9 10 9 9 10 10 11 11 11 10 12 14 17 19 17 18 16 15 18 11
17 17 16 16 16 17 17 16 16 16 16 17 18 17 18 18 18 17 16 15 15 14 13 12 12 11 11 10 10 10 10 11 10 9 9 8 8 8 7 7 6 7 8 8 8 8 9 10 11 13 12 12 12 11 13 14 19 17 16 18 18 18 19
18 17 17 17 20 19 19 17 17 16 17 18 18 19 20 19 19 18 18 18 17 17 16 15 15 14 13 12 12 13 13 11 12 11 11 10 11 9 9 10 7 7 8 10 7 8 10 9 10 13 13 13 13 13 13 16 19 21 16 19 20 21 21
17 20 18 20 20 20 19 19 19 18 18 19 19 20 21 21 21 21 20 20 20 19 18 18 17 16 15 14 14 12 14 14 13 13 12 11 9 10 9 8 10 11 7 8 8 10 10 10 11 13 13 14 15 14 15 16 20 21 18 15 17 19 18
20 20 19 21 22 21 20 20 18 19 18 20 20 21 23 21 21 22 21 22 21 20 20 20 19 17 18 16 15 13 14 14 14 13 12 13 13 10 8 9 8 8 8 9 8 13 12 13 14 15 14 14 16 15 14 18 19 20 21 16 18 17 18
18 19 21 22 23 24 21 20 20 20 21 20 20 22 22 22 22 23 23 22 22 22 22 21 20 19 18 18 18 16 15 15 15 14 14 14 14 14 11 10 10 9 9 9 9 10 10 13 13 15 14 15 17 17 18 18 20 21 21 22 18 21 19
18 18 17 20 22 22 23 23 23 22 21 21 22 21 21 22 22 23 25 25 24 24 24 22 22 21 21 20 20 19 18 16 16 16 15 15 14 12 11 10 10 10 9 10 10 10 12 11 12 14 15 15 15 16 16 16 17 20 21 24 19 21 20
13 15 13 15 18 20 20 21 21 21 21 22 22 22 23 23 25 26 26 26 26 25 24 24 23 22 20 19 20 19 18 18 16 16 15 13 8 10 11 10 10 9 9 11 11 12 12 11 14 14 15 17 17 16 16 16 18 19 21 23 23 21 21
17 16 17 17 18 17 17 18 20 20 20 21 21 21 23 25 26 27 26 26 25 25 24 23 23 23 22 20 20 19 18 17 16 16 14 13 13 13 11 11 10 11 11 11 12 12 13 13 14 14 15 17 19 18 18 19 20 21 22 24 23 25 20
15 15 15 16 17 19 20 19 19 20 20 21 23 23 24 26 25 27 27 25 26 25 24 23 22 22 21 21 20 19 18 16 16 14 14 14 13 12 12 12 10 10 12 12 12 12 12 12 13 14 15 15 17 16 18 19 20 21 22 23 23 22 24
10 13 14 15 16 18 19 17 20 21 20 21 23 24 25 25 24 21 22 24 24 24 24 24 24 23 22 21 19 19 18 16 16 15 13 13 12 11 11 12 12 12 12 13 11 11 12 15 15 15 15 16 17 18 19 20 20 22 22 22 22 22 21
11 11 14 16 16 17 19 22 23 23 23 22 19 21 20 19 14 17 21 25 24 25 25 25 25 22 21 20 19 18 17 17 15 14 14 13 12 12 12 12 12 13 10 9 7 3 6 7 16 18 17 16 17 19 19 20 21 21 22 23 23 22 22
13 13 13 14 15 16 18 19 20 20 21 20 20 19 20 14 14 19 23 23 25 21 14 14 8 9 10 21 20 21 19 16 14 13 12 12 11 12 12 12 12 6 4 7 9 11 12 12 12 16 19 16 18 19 19 20 21 22 22 23 24 23 23
12 14 13 14 14 15 16 15 16 17 18 19 19 18 16 19 19 23 26 26 18 12 10 11 14 16 13 8 17 17 16 14 13 12 11 11 11 11 12 13 13 9 12 13 20 17 15 14 15 16 16 15 14 20 20 22 22 21 24 25 24 24 24
14 13 13 15 15 15 15 16 17 18 17 17 18 17 20 21 24 23 23 25 17 16 15 11 15 17 16 14 8 15 13 12 12 11 11 11 12 12 12 12 13 13 14 15 16 15 16 18 17 17 18 18 17 18 16 22 23 24 22 25 25 24 24
15 14 14 15 14 14 15 16 17 18 18 16 16 19 20 19 20 21 22 23 20 17 18 8 16 17 16 15 9 6 12 11 11 11 9 10 12 12 13 14 15 14 16 5 13 18 19 17 17 22 20 19 20 20 20 23 22 27 24 27 27 28 27
15 15 15 15 15 16 16 17 16 16 16 17 18 18 18 19 18 18 21 22 17 18 19 12 15 15 15 13 9 4 9 10 7 8 10 11 11 12 13 15 15 15 15 15 16 17 17 17 17 15 16 19 21 22 25 26 24 26 27 29 26 29 25
16 16 15 15 15 16 16 16 17 17 17 17 17 18 17 19 19 16 19 18 19 20 18 13 15 15 14 11 6 3 8 8 8 9 10 12 13 14 14 15 15 15 16 16 15 11 14 17 17 18 19 20 21 21 20 19 24 27 27 27 29 29 28
16 16 17 16 16 16 16 16 17 16 17 17 17 16 17 17 17 18 16 20 21 23 18 12 14 13 11 9 4 6 9 7 9 11 12 13 14 15 14 14 14 15 15 16 9 8 9 14 18 21 22 21 22 22 22 15 14 15 23 26 25 25 24
16 17 17 17 17 17 17 17 16 17 17 17 17 17 17 16 15 15 18 19 23 22 19 12 12 11 8 7 4 8 8 11 12 13 13 13 14 15 14 14 14 14 16 18 10 12 9 2 16 21 23 23 23 23 24 22 15 16 17 19 21 22 22
17 17 17 18 18 16 16 17 16 16 18 17 17 12 9 10 14 17 19 21 23 22 19 12 10 9 8 7 5 8 8 11 11 11 14 13 14 14 14 4 8 18 19 18 8 11 10 10 19 22 24 25 26 25 25 24 24 22 15 16 18 21 24
18 19 19 19 18 18 17 16 16 16 16 13 12 14 17 17 17 16 18 19 15 19 18 13 9 9 6 4 6 9 9 11 12 13 13 14 13 14 15 11 14 16 16 14 9 7 8 9 20 21 24 27 29 29 27 26 27 27 27 26 25 22 22
19 19 20 19 19 18 16 16 16 13 11 13 17 17 17 18 17 18 19 18 17 17 17 14 12 8 6 4 4 11 10 11 12 12 13 15 15 16 17 18 15 16 10 10 6 5 4 3 15 20 24 29 29 30 26 26 25 26 26 27 27 26 28
20 20 19 19 18 19 19 16 13 15 15 15 19 18 18 17 18 18 17 17 18 16 16 16 14 11 7 5 3 5 10 11 12 13 15 17 17 18 18 16 16 17 12 8 6 4 5 6 7 19 24 30 30 27 21 27 30 21 30 28 29 30 30
20 21 21 21 21 20 18 15 16 17 15 18 20 21 18 18 19 18 16 16 15 15 13 11 15 12 10 8 6 6 10 10 13 15 17 18 18 17 17 16 16 16 12 9 10 9 9 10 12 23 29 21 22 21 32 32 33 30 29 28 28 28 27
22 22 22 22 19 21 16 15 15 18 19 20 22 21 20 20 20 19 16 15 13 13 13 11 10 12 11 11 9 7 5 9 3 13 15 17 17 18 17 17 13 10 19 17 17 18 19 20 18 24 18 17 18 18 19 29 29 29 28 27 28 28 27
23 23 22 20 19 15 14 16 17 18 20 22 23 22 20 20 19 18 16 14 13 14 14 13 8 12 13 13 11 9 9 9 8 12 14 17 17 17 17 16 16 16 18 19 18 18 18 18 25 20 21 22 22 20 24 26 27 28 27 27 27 28 28

ECMWFFLT1_sfc_gust_036.txt.gz
Wind_Gust
8 11 8 8 8 7 7 7 7 6 7 7 6 8 8 10 8 8 6 7 6 7 9 9 9 9 9 9 8 9 8 9 8 6 6 8 4 8 7 8 8 7 11 11 8 6 5 5 4 3 3 2 2 3 3 6 6 5 8 9 9 11 11
13 11 10 10 8 7 6 5 6 9 8 8 9 8 9 9 7 7 8 9 10 10 12 11 9 12 10 9 9 8 7 8 10 10 10 9 9 7 5 8 11 9 8 8 10 10 7 3 4 4 4 3 4 3 2 2 3 2 4 6 5 7 7
11 10 10 10 9 7 6 6 6 7 8 6 5 6 6 10 7 7 7 8 7 8 8 9 9 9 8 9 9 9 9 9 7 8 9 8 9 7 9 9 6 5 10 8 7 9 5 3 2 4 4 4 5 5 5 6 6 4 5 6 5 8 9
11 10 12 10 10 8 8 7 6 7 7 8 6 5 6 7 7 7 5 6 6 6 8 9 7 9 7 6 8 9 10 9 8 8 8 8 7 9 9 8 8 7 8 8 8 8 7 5 5 5 8 6 5 5 8 8 5 6 8 6 7 8 8
11 11 13 11 10 10 8 8 6 7 7 7 5 6 5 5 6 5 4 5 5 4 5 6 5 8 7 9 8 8 8 8 8 9 9 9 9 7 7 7 7 9 10 9 10 8 8 8 6 7 9 9 10 10 6 4 6 7 7 8 10 10 10
11 11 12 10 10 9 9 8 7 8 8 8 7 7 6 5 5 5 3 6 6 5 5 6 5 5 6 7 7 8 7 7 8 8 8 8 8 9 6 6 8 11 9 6 5 4 4 3 4 5 9 11 8 10 12 6 9 10 9 8 10 10 9
10 10 12 12 11 9 10 8 8 7 9 8 7 7 8 5 6 4 4 6 5 5 5 5 5 5 3 9 7 7 7 6 6 7 7 7 6 7 7 6 7 7 6 6 5 6 7 8 7 8 9 10 8 12 12 12 9 10 9 12 8 8 6
11 11 11 11 11 9 10 9 8 7 8 8 9 7 10 6 6 6 5 5 5 4 4 3 4 3 5 6 8 5 6 6 7 7 7 7 8 7 5 6 7 7 6 7 6 8 7 7 5 4 4 8 8 7 10 15 14 9 9 13 13 10 9
12 10 9 10 10 8 8 10 8 6 7 8 9 8 9 8 7 7 7 6 5 4 4 4 4 5 2 4 7 4 5 8 6 6 7 7 5 6 5 5 6 7 5 5 7 8 8 7 5 3 3 3 7 10 10 12 13 16 19 21 9 11 10
12 11 10 9 11 9 6 8 8 7 5 8 9 9 10 9 9 7 9 8 6 6 5 4 4 5 4 3 6 3 5 4 3 7 5 5 4 4 4 3 5 8 6 5 7 5 4 7 7 5 4 3 3 6 8 10 10 14 17 19 17 15 20
10 10 9 8 9 10 7 6 7 8 7 8 9 10 11 10 9 10 9 9 9 8 7 7 6 7 4 4 6 4 5 4 5 4 3 4 4 4 4 4 3 8 4 4 3 2 5 3 4 6 5 6 3 3 4 8 12 10 14 13 17 20 20
9 8 8 7 7 9 9 8 7 7 8 8 9 10 11 11 11 11 10 11 11 10 9 8 7 6 6 5 7 5 6 4 5 5 5 5 4 4 3 2 2 6 3 3 3 4 3 3 4 6 7 7 6 5 3 5 12 6 5 13 14 18 18
12 10 7 6 7 8 9 8 8 7 8 8 8 10 11 12 12 12 12 12 12 12 12 10 10 8 7 6 9 7 8 7 9 7 8 5 7 5 3 4 3 5 4 4 3 5 3 2 3 2 3 5 5 4 4 7 9 14 6 9 12 13 15
6 7 8 8 6 7 9 8 7 6 8 8 8 10 12 13 14 14 16 15 15 14 12 11 10 10 10 9 10 9 11 11 10 9 7 6 6 6 6 5 7 5 2 3 3 3 5 2 2 2 5 7 7 5 5 6 11 13 9 5 6 9 11
5 3 6 6 7 7 9 9 8 7 7 8 8 11 15 12 13 15 16 16 14 15 14 13 11 10 11 10 9 9 10 11 9 9 7 10 7 6 5 4 5 8 5 4 2 10 8 8 9 8 4 6 7 7 7 9 9 11 14 9 9 8 11
7 5 6 6 8 9 9 8 8 8 8 10 11 13 13 13 15 16 16 16 16 15 15 14 11 11 10 11 12 10 8 9 8 7 9 9 11 10 7 5 4 4 5 4 2 5 4 7 7 9 7 5 7 4 6 7 8 11 12 14 12 15 11
7 6 5 6 9 10 9 9 11 10 6 6 11 10 14 17 17 16 16 17 17 14 14 12 12 13 14 12 11 12 11 9 9 9 9 10 11 10 10 7 5 3 5 5 4 3 5 4 3 6 7 7 5 6 4 4 7 9 11 14 11 16 13
6 5 7 9 10 13 13 11 7 11 11 11 11 15 15 17 19 19 18 19 18 15 13 13 13 12 10 8 9 9 10 11 9 9 8 8 6 6 8 6 6 5 3 2 2 5 4 4 8 6 8 9 9 7 5 5 7 8 10 12 13 12 13
7 7 12 14 13 11 11 12 12 14 14 14 12 15 19 22 22 22 19 18 15 16 17 15 15 13 14 13 10 8 7 8 8 9 9 9 9 5 4 6 6 4 4 3 4 3 4 5 7 7 9 11 12 10 8 9 10 11 12 14 13 16 10
8 7 10 12 14 13 13 7 10 14 14 14 14 13 18 19 15 18 21 19 17 15 16 15 13 12 12 13 12 11 9 7 7 6 7 8 6 6 7 7 5 4 4 4 4 3 3 3 4 7 7 7 10 8 9 9 11 12 12 14 14 13 15
10 11 11 12 12 11 9 12 18 18 15 18 17 17 13 8 16 9 12 12 13 11 11 13 19 17 14 12 10 12 11 11 9 8 5 5 6 6 6 5 5 5 6 7 4 3 3 4 7 9 8 8 9 10 10 10 10 11 12 13 14 13 12
11 13 16 16 15 13 14 14 17 20 20 22 19 10 11 10 11 14 12 12 9 6 13 14 16 15 16 12 9 11 13 13 11 8 8 9 6 6 6 5 6 7 5 10 7 5 3 3 6 9 9 8 9 10 11 11 12 11 12 12 14 13 13
7 7 9 9 12 14 14 13 12 13 15 16 15 13 16 16 14 14 14 12 10 10 11 10 13 15 12 18 10 12 11 11 11 9 8 9 8 7 7 6 6 5 9 6 4 6 8 8 8 9 10 9 10 11 11 11 12 12 13 14 14 13 14
7 8 7 8 7 11 12 11 14 15 13 13 13 13 12 17 15 12 13 12 8 8 7 11 12 11 9 10 10 9 10 9 9 8 9 9 8 8 8 9 6 7 9 6 11 11 11 11 12 12 13 13 9 10 11 12 12 12 15 16 15 15 15
8 8 7 9 10 10 10 11 11 10 9 10 10 9 11 12 11 11 12 14 13 9 7 5 8 9 6 6 5 7 8 9 9 7 5 7 8 6 5 5 4 4 6 7 8 9 11 13 14 15 16 16 16 16 12 14 13 14 13 15 15 15 15
9 8 9 9 8 8 10 11 12 10 10 9 9 9 10 10 12 11 13 13 14 9 9 4 7 9 11 12 13 11 9 8 10 9 7 5 6 4 3 4 6 6 9 4 7 10 11 11 15 18 16 15 14 14 15 17 17 18 14 16 17 18 16
11 9 9 9 8 11 10 11 9 9 9 8 7 9 8 10 9 11 10 12 7 12 10 5 10 13 13 14 13 9 11 9 8 7 5 4 3 4 4 5 7 7 7 7 8 10 10 9 8 6 8 11 13 15 18 21 21 21 19 19 18 19 15
10 10 10 10 9 11 11 9 10 9 9 9 8 7 10 9 10 9 9 9 14 11 11 7 11 14 14 15 15 10 11 9 9 6 4 2 3 4 7 7 8 9 8 9 6 9 7 9 10 10 11 13 14 15 13 11 13 16 17 17 19 20 19
9 9 10 8 10 11 10 9 9 8 10 10 9 7 6 8 6 7 13 16 14 15 10 7 13 13 14 13 13 11 10 7 6 4 2 3 6 7 8 9 8 9 7 9 8 7 6 6 8 12 15 14 15 15 14 9 11 11 13 14 14 16 16
11 11 11 11 11 10 9 10 9 10 10 10 9 8 6 6 8 16 16 14 17 15 12 9 12 13 14 14 9 10 6 5 4 3 4 7 10 9 9 10 10 9 8 7 10 8 6 3 8 12 15 15 15 16 16 15 12 12 11 14 17 20 21
12 11 11 13 12 9 9 9 10 8 11 10 11 6 6 14 17 15 15 16 15 16 13 8 11 13 14 14 10 6 5 2 2 4 4 6 8 8 9 6 6 9 9 11 10 8 6 5 8 12 14 17 17 17 16 15 15 13 11 14 13 14 15
13 13 14 13 10 11 11 11 11 9 9 9 9 14 14 17 15 16 15 16 14 17 14 9 10 13 13 12 9 6 6 5 4 3 4 5 6 7 8 5 8 13 15 14 11 11 10 8 10 11 14 16 19 19 17 15 17 17 16 17 17 18 18
11 12 14 12 11 12 11 12 10 9 7 10 14 14 15 15 16 14 15 16 15 15 15 10 10 12 12 11 10 9 7 7 6 6 7 8 9 8 8 11 15 15 15 13 11 8 7 6 9 12 14 16 17 21 14 15 15 18 20 21 21 19 21
11 11 12 13 12 11 12 11 11 9 7 10 12 14 15 15 15 14 13 14 15 12 12 12 10 11 10 10 11 9 6 9 9 9 9 10 8 9 10 9 14 10 13 11 10 7 5 4 4 11 12 16 17 16 15 19 20 14 21 22 22 22 23
11 11 11 12 12 13 13 13 11 12 11 13 14 15 13 14 15 15 14 13 13 12 10 10 11 8 9 8 8 6 7 8 8 7 8 9 9 10 9 10 10 8 9 6 5 7 7 9 10 13 15 11 13 13 16 17 18 20 21 22 22 22 21
12 13 13 12 14 16 13 11 6 8 14 14 15 15 13 13 15 16 14 13 11 11 10 10 10 9 6 7 5 4 3 5 4 5 7 9 9 9 10 11 10 9 7 8 10 12 13 14 10 12 11 13 14 16 14 16 16 18 21 22 22 23 22
14 13 14 14 13 12 7 7 11 11 13 13 15 15 13 13 14 15 16 14 12 11 10 10 9 11 10 10 8 8 7 6 5 4 5 8 9 8 11 9 12 17 13 13 11 11 12 13 14 14 17 18 18 15 14 15 15 16 17 18 21 22 22

ECMWFFLT1_sfc_gust_042.txt.gz
Wind_Gust
12 12 9 7 6 6 8 5 6 6 6 6 8 7 7 9 11 11 9 8 9 8 9 9 8 5 8 8 8 7 8 6 6 8 4 2 4 3 4 6 5 5 5 7 4 4 7 3 5 7 3 5 5 4 4 4 4 6 2 10 14 11 6
10 11 9 7 8 7 7 5 7 6 7 6 6 6 6 9 10 9 7 8 8 7 8 9 7 8 8 8 8 11 9 9 7 5 7 4 4 3 6 5 6 6 5 5 4 6 5 4 2 2 6 7 3 4 5 4 5 3 5 10 8 12 13
12 10 9 10 8 7 9 7 7 7 6 7 5 5 6 8 9 7 8 7 6 8 9 8 7 9 8 8 7 7 8 9 6 7 8 6 7 5 5 7 5 4 7 7 7 6 5 5 5 3 4 5 7 8 6 7 6 6 3 2 6 11 13
14 14 13 9 8 7 10 8 8 7 6 6 6 5 6 7 7 7 8 6 6 6 7 6 6 7 6 7 7 8 9 9 8 8 8 7 8 10 9 9 8 7 5 5 3 6 6 4 5 6 4 5 2 5 7 6 7 6 4 4 4 3 5
16 16 16 15 14 13 11 11 8 9 7 6 6 6 6 6 7 8 7 7 7 7 6 6 6 7 6 7 8 8 7 6 7 9 7 8 7 9 7 7 8 7 7 5 3 5 8 4 6 2 4 6 5 3 7 9 5 8 9 7 5 4 4
12 14 13 13 12 14 13 11 10 11 9 9 6 8 5 5 7 8 8 8 7 6 5 6 5 7 7 7 7 6 7 8 7 8 10 6 6 9 9 5 8 9 8 4 7 7 5 7 7 6 3 2 2 5 6 6 9 8 10 13 9 9 11
12 11 11 14 11 11 13 14 14 14 13 12 10 9 8 5 5 6 6 5 5 6 6 6 6 5 7 8 6 7 6 4 7 7 7 5 6 4 5 11 9 9 6 7 7 9 7 7 6 4 3 5 3 4 5 9 8 12 12 10 7 9 13
14 11 10 10 12 11 10 12 12 11 12 11 12 10 6 6 6 6 6 6 4 6 6 6 6 6 6 7 7 6 6 6 7 8 7 8 10 8 8 8 8 8 6 7 9 8 7 6 5 2 5 8 8 7 8 6 7 6 5 4 4 12 13
11 11 9 7 8 10 11 12 12 11 11 12 9 9 7 8 8 7 6 6 4 5 6 7 6 6 5 7 5 6 5 4 7 6 5 8 8 6 6 5 10 5 5 5 7 7 7 6 8 6 8 8 9 8 8 9 8 5 6 10 6 6 13
13 13 13 10 10 10 11 10 12 12 10 11 12 10 10 7 9 8 8 6 5 4 5 5 6 5 5 6 6 5 4 2 5 5 5 8 5 6 6 6 7 7 5 4 5 7 6 6 6 6 6 8 7 9 7 10 6 4 6 8 9 7 11
14 13 12 13 11 10 10 10 7 9 10 12 13 10 10 10 8 9 9 6 6 4 5 4 6 6 6 5 5 5 4 4 3 2 3 5 5 6 5 5 5 7 4 5 5 5 6 5 6 6 7 5 8 8 3 4 7 4 4 6 5 9 9
11 12 12 11 10 12 11 11 13 14 10 9 10 10 10 10 11 9 9 8 6 6 4 5 5 6 6 6 3 5 3 5 6 4 2 4 3 6 5 4 3 6 5 6 7 7 6 7 9 7 7 5 8 6 5 3 5 8 2 7 6 4 7
11 12 12 11 12 12 11 11 13 10 15 13 12 12 12 12 12 11 9 10 8 7 7 6 6 7 5 7 6 6 6 5 6 5 3 3 5 6 6 4 2 3 3 6 7 7 7 7 6 10 9 9 8 6 5 4 1 10 5 4 5 8 6
10 9 11 12 13 12 12 12 13 15 11 13 13 12 11 13 13 13 13 12 11 10 8 7 6 7 6 8 7 7 6 6 7 4 4 3 2 5 6 5 2 1 3 6 4 5 8 5 5 9 8 9 10 8 8 6 7 11 10 3 5 9 12
8 2 7 12 12 10 9 10 11 8 14 14 15 15 14 13 12 12 13 14 13 12 11 9 8 7 9 8 8 7 9 7 7 7 4 5 4 4 5 6 3 1 2 6 4 6 5 7 8 9 9 8 9 9 6 11 5 4 11 11 10 8 10
8 7 6 5 5 7 9 7 7 6 9 11 11 14 15 14 14 13 12 13 14 12 12 12 10 10 10 10 10 8 8 9 9 9 8 8 7 5 5 5 5 2 2 3 3 5 5 7 6 9 7 8 10 9 8 7 8 6 6 11 5 10 8
8 9 8 7 9 13 14 13 11 9 4 5 7 5 5 6 5 9 11 12 12 13 13 13 13 12 13 12 10 11 10 10 10 10 11 10 7 7 8 6 6 5 4 4 2 5 5 6 8 6 7 5 7 7 5 6 6 5 5 11 8 10 9
5 2 3 3 14 14 10 7 4 5 5 7 5 7 4 5 8 9 12 11 10 9 11 11 12 13 11 11 13 13 13 13 11 11 11 11 10 10 9 9 8 6 6 6 3 4 4 6 5 7 6 6 7 7 7 7 5 4 5 7 11 8 8
10 9 8 7 6 7 9 9 12 13 12 14 7 7 8 4 6 7 7 7 8 7 8 10 11 11 9 8 8 9 10 11 12 11 10 11 11 11 11 10 9 9 8 7 6 5 5 5 5 6 6 6 5 5 6 7 8 9 8 8 6 13 5
5 7 6 7 4 3 4 7 9 17 16 15 8 9 8 9 8 7 6 5 7 8 8 9 11 10 9 10 10 9 8 9 10 12 11 11 11 11 11 11 11 11 11 9 9 8 7 5 7 5 4 3 2 5 6 5 6 7 7 8 8 5 12
6 8 7 5 5 7 9 9 10 10 10 10 10 11 9 10 9 8 8 7 6 7 6 6 6 8 10 12 12 10 10 9 8 8 8 9 10 11 12 12 11 11 11 10 11 9 10 9 6 5 3 4 3 5 5 6 7 8 8 8 5 9 7
6 6 6 6 6 7 7 7 6 5 5 6 8 8 8 9 8 6 4 5 6 6 8 9 10 10 11 11 10 10 10 10 10 9 8 8 8 10 10 11 10 10 11 12 12 11 10 10 8 3 2 4 2 2 4 4 5 8 8 7 11 6 9
6 6 5 7 8 7 7 6 5 5 7 6 6 6 7 6 6 6 6 5 5 6 8 8 9 12 10 11 9 8 6 6 9 11 11 9 8 9 12 11 11 14 14 14 14 13 13 10 7 6 5 5 3 2 2 3 6 5 5 9 9 10 14
4 4 6 4 4 5 7 6 4 5 6 5 6 7 5 6 7 7 8 7 7 9 9 10 12 13 12 9 6 7 7 5 6 7 9 13 14 12 9 10 10 13 13 12 14 13 11 9 7 7 6 5 6 5 2 4 5 2 5 6 7 8 9
2 3 3 5 5 6 5 5 5 6 6 7 7 5 6 10 9 7 6 6 8 10 9 3 4 5 8 10 8 8 8 8 9 10 11 12 12 12 12 10 7 7 8 9 8 8 6 6 5 8 7 6 7 7 5 4 4 4 4 6 8 9 8
6 5 5 6 6 6 6 3 2 2 4 7 3 6 10 9 11 7 7 8 9 5 3 7 5 6 8 9 9 7 7 8 9 9 7 9 11 11 10 9 8 6 7 8 8 5 5 7 7 8 6 6 6 7 7 6 6 6 4 4 7 8 7
3 2 1 2 4 5 6 5 5 6 4 2 1 3 5 7 8 5 4 5 2 3 4 5 4 7 9 11 10 7 3 3 4 6 6 6 6 8 9 10 10 8 7 7 7 7 7 7 8 8 6 3 4 3 3 4 6 7 7 6 5 7 7
4 5 3 2 3 3 3 3 3 3 3 4 4 2 1 5 6 3 3 4 5 4 4 4 6 7 8 8 10 7 8 9 11 11 11 11 10 10 11 9 10 7 6 6 6 4 7 7 7 8 7 6 6 5 4 6 6 4 3 1 2 4 6
3 4 4 5 3 3 4 4 4 5 4 5 4 5 6 3 2 4 5 6 6 5 4 5 9 11 14 14 13 11 11 12 11 12 12 12 9 7 8 7 7 7 10 11 10 13 10 10 10 9 7 6 7 7 6 4 7 8 6 4 2 1 4
3 2 1 2 2 2 2 4 4 3 7 6 6 7 5 4 3 6 6 6 8 5 4 5 9 13 14 15 12 11 10 11 10 10 10 9 9 7 5 4 10 14 13 11 11 14 13 12 11 9 6 5 4 5 8 7 7 7 8 9 8 8 8
1 1 2 2 2 1 2 2 4 3 5 5 6 4 5 8 6 5 6 6 5 8 4 6 7 10 12 12 11 12 11 12 10 9 9 10 11 10 10 15 14 14 13 10 11 14 12 12 11 7 5 3 4 5 8 5 6 7 7 9 11 12 12
3 1 2 2 2 1 1 2 3 6 7 8 7 5 5 9 7 6 5 5 7 9 6 6 8 11 12 11 10 8 10 11 11 8 10 13 13 12 12 12 15 15 13 11 13 11 10 9 7 5 4 2 2 4 9 5 6 6 8 8 9 9 11
5 2 2 4 4 3 3 5 7 9 6 8 9 7 7 8 9 6 4 5 6 5 8 5 6 11 12 13 12 12 8 11 10 9 9 12 13 11 11 11 11 12 13 11 9 9 8 7 6 4 4 2 1 5 6 3 6 4 6 7 10 8 11
2 1 2 2 2 1 2 4 6 8 9 8 9 9 8 7 8 6 5 4 6 4 5 7 6 10 12 13 14 13 11 11 9 11 11 10 11 11 9 8 6 7 9 8 7 6 7 5 5 5 5 4 7 6 2 2 8 7 6 8 9 9 11
4 6 5 2 2 4 3 3 6 9 9 9 9 8 6 7 8 6 5 4 4 5 5 7 8 10 12 13 13 13 12 8 9 13 12 10 10 10 9 7 6 5 6 7 6 6 6 6 6 3 5 7 8 8 7 6 6 6 8 8 9 10 10
4 3 3 5 6 3 2 5 6 10 10 8 9 9 7 8 9 8 5 4 3 4 3 4 9 10 11 13 13 13 12 10 8 11 13 11 10 9 7 6 5 7 7 7 6 4 4 5 5 4 6 6 7 8 6 5 6 4 7 8 8 10 11
4 3 6 6 6 5 5 6 5 8 9 10 10 9 8 8 9 10 10 7 3 3 2 6 7 10 11 13 13 14 14 13 11 11 12 12 9 9 7 5 4 6 6 4 3 4 4 4 2 4 5 6 6 5 3 5 5 6 6 7 9 10 11

ECMWFFLT1_sfc_gust_045.txt.gz
Wind_Gust
10 9 5 5 5 6 8 5 5 5 5 5 8 7 7 8 9 8 8 7 7 4 5 6 5 2 6 6 5 5 5 5 9 11 7 4 6 4 6 7 6 7 6 8 4 3 6 5 5 5 4 5 6 6 6 6 7 8 7 9 11 14 13
7 9 5 4 6 5 8 4 5 4 5 5 6 8 6 7 8 9 7 7 7 6 6 7 5 6 7 7 6 9 8 8 6 5 8 7 6 5 6 5 7 7 5 5 5 5 5 5 1 2 6 7 5 6 8 6 6 5 5 7 5 10 11
6 6 6 6 6 5 9 5 5 5 3 5 5 6 8 7 8 8 8 7 6 5 7 6 6 7 6 8 6 6 6 9 5 6 8 6 6 5 5 7 6 5 7 7 7 5 6 5 6 2 2 5 7 5 9 13 10 6 5 4 7 7 5
8 9 8 5 5 6 10 6 7 5 2 3 4 6 7 8 7 6 7 5 4 5 6 6 7 7 6 7 7 8 9 9 8 9 9 8 8 10 7 8 8 7 5 5 2 5 5 4 4 5 4 3 1 5 12 8 11 9 8 8 9 11 8
14 12 11 10 8 9 9 9 5 5 3 2 3 6 7 7 8 6 5 4 5 5 6 5 5 6 5 7 9 9 8 7 7 10 9 10 9 10 8 7 8 7 8 7 3 4 6 3 5 3 4 6 4 4 5 7 8 13 11 12 11 10 10
14 12 9 8 7 10 9 8 7 9 4 5 4 7 4 6 8 8 6 6 5 5 5 6 5 6 7 8 8 8 8 9 8 9 11 7 8 11 9 6 8 9 8 4 6 7 7 7 7 6 3 3 4 4 5 5 9 4 9 11 8 9 10
13 13 11 11 8 7 8 9 9 10 9 8 6 7 7 5 6 6 6 5 4 4 4 5 5 5 6 8 6 8 7 5 7 9 9 7 8 5 5 11 9 9 8 7 6 8 6 7 8 3 2 5 4 4 4 8 6 8 7 6 7 9 12
14 13 12 10 10 8 6 7 6 6 8 6 8 3 2 3 5 6 6 7 5 5 5 5 5 6 6 7 6 6 6 6 8 9 7 8 10 8 7 8 9 9 7 6 8 7 6 5 6 3 4 3 4 7 7 5 5 8 3 4 6 13 13
13 12 11 8 7 6 6 7 7 6 6 6 4 2 1 2 4 4 4 6 5 5 5 6 5 6 6 9 6 6 6 4 9 8 6 9 8 7 6 5 10 6 5 6 7 6 8 6 7 5 8 8 8 4 6 8 9 5 4 9 4 9 14
14 14 15 11 10 7 6 6 7 6 5 6 7 3 2 1 2 4 4 4 4 6 6 5 5 4 5 7 8 6 6 5 8 6 6 9 5 6 7 6 7 7 5 4 6 6 5 6 6 6 5 9 7 9 5 6 5 5 7 9 11 8 12
15 14 13 14 10 10 7 6 3 5 8 7 6 4 4 3 3 4 4 4 4 5 6 6 6 6 5 6 6 6 5 5 7 5 6 8 5 6 6 6 6 9 4 8 7 4 6 6 8 8 9 6 6 10 4 5 5 3 5 6 9 12 10
13 14 13 12 11 12 11 9 8 10 5 4 5 4 4 4 4 4 3 4 3 4 4 6 6 6 5 6 4 7 4 5 6 6 2 6 5 7 7 6 5 7 6 8 8 9 8 10 9 9 9 10 11 6 6 4 5 6 3 7 7 5 9
13 14 13 13 13 13 13 12 9 5 8 5 5 4 5 6 7 7 6 6 5 3 3 3 5 6 4 4 5 5 4 6 6 6 4 3 5 6 6 7 5 6 4 8 9 8 9 8 8 12 10 12 10 8 7 6 6 6 5 3 7 7 9
13 12 12 12 13 13 11 10 11 10 5 7 7 6 5 7 7 9 8 7 7 7 6 6 5 5 6 4 4 5 5 6 7 6 6 4 3 5 5 6 4 3 3 9 6 8 9 7 9 10 9 10 11 10 9 8 10 8 7 2 5 10 9
13 10 10 8 5 5 5 4 3 3 8 9 9 9 9 8 6 6 6 8 8 8 8 7 6 5 6 6 5 4 6 5 5 6 4 6 5 5 7 7 4 3 4 8 6 7 7 8 8 11 9 10 10 10 7 12 7 6 10 8 9 6 10
7 8 7 7 7 7 8 7 7 7 4 3 2 3 7 8 10 9 8 8 8 7 9 9 6 6 7 7 8 6 7 7 7 7 7 7 7 6 6 6 6 5 5 7 6 6 6 7 7 10 7 7 9 6 6 6 9 8 8 11 5 12 12
12 11 12 11 11 9 8 7 8 11 8 8 4 3 6 6 7 6 9 10 10 10 9 9 7 8 9 9 9 8 7 7 7 8 9 8 6 7 8 6 6 6 5 8 5 6 5 6 8 8 8 6 9 8 6 7 7 5 3 8 8 10 9
9 9 8 7 6 6 5 4 6 9 11 9 7 4 4 3 6 11 15 13 11 10 10 9 7 7 7 7 8 9 8 9 9 8 9 9 9 9 9 9 9 7 6 8 5 7 6 7 6 9 8 6 8 6 7 8 7 7 6 7 10 6 7
3 6 6 4 5 7 5 4 4 4 6 7 7 7 6 3 8 12 12 12 10 13 11 8 7 8 8 6 6 7 8 9 9 9 8 8 9 9 10 9 9 9 8 9 8 6 6 8 7 8 7 6 7 7 8 6 6 7 7 3 3 11 5
2 3 3 3 7 6 5 3 3 4 4 5 7 8 6 6 4 10 15 14 15 17 15 10 9 9 9 7 8 8 8 8 7 8 8 9 9 10 10 9 9 10 10 10 11 11 10 8 8 6 7 7 5 7 7 6 6 7 6 6 4 2 8
6 7 4 5 5 12 11 7 7 7 6 7 7 8 10 10 12 12 10 11 13 15 16 11 8 10 10 10 8 9 9 9 9 8 7 8 8 10 11 11 11 12 13 12 12 11 11 11 7 7 4 6 5 6 5 5 6 7 5 4 4 6 5
11 12 10 11 13 13 14 17 13 9 7 6 7 10 11 9 6 10 16 15 13 13 12 10 9 9 10 10 11 12 12 12 12 11 9 8 7 8 8 10 11 12 12 12 11 11 9 10 11 9 4 5 5 6 4 5 6 5 4 4 5 3 6
10 13 14 13 13 11 11 10 9 9 9 8 12 15 14 12 16 19 17 15 12 11 9 8 9 12 10 10 10 10 9 9 9 10 10 8 6 7 9 10 11 14 14 13 12 11 10 9 7 9 11 8 6 5 4 4 4 3 3 3 4 5 9
15 15 15 14 13 12 11 8 6 7 9 12 14 14 13 13 15 16 15 15 12 9 8 5 6 5 6 8 6 4 6 7 5 6 7 8 10 10 9 9 8 10 10 9 11 12 12 9 10 11 10 8 7 9 7 5 3 3 3 3 3 3 4
3 1 1 2 3 3 3 5 6 5 5 7 9 10 12 13 12 11 8 5 6 5 4 5 6 7 11 14 9 8 7 6 9 6 6 7 6 7 8 8 5 6 9 10 11 11 9 9 10 10 10 9 8 7 6 5 6 4 3 3 4 6 5
6 6 3 3 3 4 5 5 3 3 2 2 1 2 5 3 5 5 6 7 5 3 4 3 5 6 10 12 11 9 5 6 7 7 7 7 8 8 7 8 7 6 7 11 11 9 10 9 8 12 12 11 10 9 8 8 6 4 6 3 4 5 5
3 3 3 4 4 4 4 3 3 3 3 4 3 1 2 3 2 2 5 6 4 2 1 5 7 9 9 9 7 7 4 6 5 4 4 3 3 5 6 8 10 9 7 8 8 9 9 9 9 10 11 11 10 10 9 9 7 6 4 2 2 4 3
5 5 5 4 3 4 3 2 2 2 2 1 1 1 2 3 2 3 2 3 5 2 2 6 7 8 9 6 4 4 4 5 6 4 4 4 5 8 8 9 10 11 9 8 6 8 11 10 10 10 11 9 9 8 8 7 6 5 3 2 2 3 4
7 6 5 5 6 4 3 3 5 3 4 3 3 4 5 7 5 5 4 5 5 2 3 7 4 5 5 6 7 6 6 8 8 7 7 6 6 6 7 9 11 11 11 11 9 13 11 11 12 11 9 7 7 6 5 3 3 3 4 3 2 2 4
6 5 5 5 6 5 5 4 2 2 6 5 5 7 5 5 4 4 4 3 5 3 4 7 4 3 9 10 8 8 8 10 9 10 8 8 8 8 8 10 11 12 11 11 10 14 13 11 11 9 7 6 5 5 7 4 2 2 2 2 3 4 6
4 2 3 2 2 1 1 1 2 2 4 4 6 5 4 6 6 5 4 3 2 5 3 6 5 4 5 6 8 10 9 11 9 10 10 9 10 11 13 16 12 13 14 11 10 12 11 11 10 7 6 5 5 6 8 6 7 7 6 7 9 9 10
4 2 1 1 2 2 3 4 3 6 8 7 6 4 5 7 6 6 5 4 6 6 4 5 5 5 7 8 8 7 10 10 11 7 10 11 10 10 11 12 14 13 13 11 12 10 10 9 9 5 5 3 1 2 5 3 4 6 8 9 10 10 12
6 6 5 3 3 5 4 5 5 8 6 7 7 5 4 5 5 5 5 5 5 3 5 4 5 7 8 8 9 12 9 13 10 9 8 9 11 9 10 11 12 13 13 12 10 9 7 7 8 6 6 4 2 2 3 2 4 2 5 5 8 6 9
9 7 7 7 6 5 5 8 5 6 7 5 6 6 5 4 6 6 5 5 4 3 3 5 5 8 9 9 8 8 11 13 12 12 11 9 10 10 9 7 6 7 10 9 8 7 7 7 7 6 4 3 4 3 1 3 7 6 4 6 6 7 9
4 8 7 8 7 4 2 6 8 7 7 7 6 5 4 5 6 5 5 4 4 4 4 4 5 7 10 11 11 11 9 5 10 16 12 10 9 8 7 6 5 5 6 7 6 5 5 5 3 3 3 5 5 4 5 4 5 5 6 6 7 7 9
7 7 8 7 7 6 6 7 5 7 8 5 6 5 4 4 6 5 4 5 4 5 5 4 6 8 10 13 13 12 9 8 6 7 13 11 9 10 6 4 3 5 5 4 4 3 3 3 2 2 4 4 6 6 4 2 2 3 6 6 7 9 9
7 7 8 8 7 10 6 6 6 8 8 9 8 6 4 6 5 6 6 2 2 3 4 5 6 9 11 13 13 12 12 10 9 9 10 12 9 8 7 4 3 4 3 2 3 2 2 2 1 4 4 3 4 4 4 5 5 6 6 7 8 9 10

ECMWFFLT1_sfc_gust_048.txt.gz
Wind_Gust
11 9 6 5 3 5 8 6 7 7 7 6 8 7 7 7 8 8 8 8 9 7 8 8 7 5 5 6 6 5 7 7 8 9 7 4 3 4 5 6 7 7 7 6 7 10 9 11 5 6 5 8 12 12 10 10 10 9 7 4 7 8 8
6 8 6 5 6 4 9 5 8 6 7 7 6 7 6 6 7 8 7 9 10 8 8 9 8 8 7 6 6 7 8 8 5 4 5 5 5 4 4 8 6 7 7 8 7 8 8 9 5 6 6 5 11 16 13 11 11 9 9 10 9 9 8
8 7 6 7 4 4 8 5 6 8 7 8 6 5 7 6 7 7 8 8 7 7 7 9 8 9 7 8 6 6 6 9 7 6 8 6 5 6 6 6 5 4 7 8 9 9 12 10 10 5 7 10 15 13 12 15 14 14 13 12 13 14 14
8 10 9 5 5 4 9 5 7 7 6 8 7 7 6 5 6 6 8 7 7 7 8 8 7 8 6 8 7 8 8 9 9 9 10 8 8 8 8 6 7 6 5 7 4 8 6 7 9 8 7 7 10 16 13 9 13 13 13 13 14 14 14
14 13 12 11 8 9 8 7 4 8 6 8 7 7 5 5 7 9 7 8 8 8 8 7 7 7 6 6 8 8 9 7 6 9 9 9 8 10 9 8 9 8 9 8 5 5 7 6 9 8 8 7 10 10 4 7 10 14 15 15 13 13 13
13 12 12 10 7 10 9 8 6 8 6 9 6 8 3 3 5 8 6 7 7 6 6 6 5 5 6 7 8 8 8 7 6 8 11 7 7 11 10 7 8 9 9 5 6 9 8 9 9 9 5 5 10 7 7 6 11 9 13 15 14 13 13
11 11 10 12 8 7 8 8 8 9 9 7 7 6 3 2 4 4 6 7 5 5 5 5 5 4 6 8 7 9 8 6 8 10 10 8 9 7 6 11 9 10 8 6 7 9 8 8 9 8 8 9 7 7 6 10 9 7 10 13 13 13 14
12 10 9 9 11 9 5 8 5 6 8 5 7 3 3 5 5 6 5 7 6 5 6 6 6 6 6 8 8 8 7 6 9 10 8 8 10 9 9 10 10 10 9 8 9 9 8 8 8 6 10 14 9 9 9 8 9 13 6 6 13 16 14
7 7 8 7 7 8 7 9 7 6 5 6 2 4 3 5 5 6 6 6 5 3 3 5 5 6 6 9 7 8 8 4 11 10 8 10 9 8 8 6 11 9 7 8 9 9 10 8 10 8 9 9 15 11 6 11 11 11 9 9 8 14 14
9 10 10 8 8 7 7 7 8 6 5 4 4 3 5 4 5 5 7 6 5 3 4 3 4 4 4 6 8 8 8 6 9 9 8 10 7 8 8 8 9 8 7 7 8 9 9 9 9 9 8 10 9 14 8 8 7 8 9 11 12 13 13
9 8 9 10 9 9 6 6 6 7 5 5 6 3 4 4 3 5 5 5 5 3 3 3 3 4 4 6 5 7 6 7 9 6 6 9 7 8 8 8 7 9 6 10 10 8 10 11 11 10 10 8 8 12 8 9 7 4 6 7 10 13 12
6 6 6 8 8 9 9 8 8 7 6 5 6 5 5 5 5 4 4 3 3 3 3 3 3 4 3 5 3 6 4 6 9 7 3 6 4 7 8 8 7 8 7 10 9 10 8 10 10 10 10 10 10 10 11 8 8 5 5 8 7 6 10
6 6 6 9 9 8 8 9 7 6 8 7 5 5 5 5 5 5 3 3 2 1 2 2 4 5 4 4 5 5 3 5 6 6 3 3 6 7 8 8 6 8 7 9 9 8 9 8 8 11 10 11 9 8 9 10 11 7 3 6 5 7 9
7 7 6 3 6 6 6 6 6 3 5 4 4 4 5 5 4 4 3 3 3 3 2 1 1 4 4 4 2 3 5 5 7 3 5 3 3 5 8 8 7 6 6 10 8 8 9 8 9 10 9 10 10 6 9 9 9 6 4 3 5 8 8
9 8 7 4 2 3 4 5 5 4 4 5 6 5 4 4 4 2 1 2 2 2 1 2 2 3 5 5 4 4 6 7 6 6 4 5 4 4 7 8 6 6 4 10 7 9 9 8 9 10 8 10 9 8 4 9 7 7 5 4 7 5 8
8 8 8 6 4 5 5 5 6 7 7 6 6 6 7 7 4 3 1 1 2 3 4 3 2 3 5 5 6 6 6 7 8 9 8 8 8 6 6 6 7 7 6 9 6 7 6 8 7 10 8 7 9 7 6 7 8 8 7 5 4 7 9
10 10 10 8 5 2 3 5 6 8 8 8 8 5 6 7 7 5 4 1 1 3 5 4 4 4 5 5 7 6 6 8 8 8 9 10 10 10 9 8 7 8 7 9 8 7 6 7 8 8 8 6 7 8 7 7 7 7 5 8 6 8 8
7 9 9 8 8 7 6 6 6 10 10 9 7 8 7 7 8 7 5 4 3 4 5 5 4 3 4 6 8 8 8 8 9 10 10 9 9 10 10 10 10 9 9 9 8 8 8 8 8 9 9 7 8 6 7 7 7 8 9 8 6 5 8
8 8 8 7 7 7 7 7 6 3 5 7 5 5 6 5 7 8 7 7 7 8 7 6 5 5 5 5 8 9 9 9 9 9 8 9 9 9 11 11 10 10 11 11 11 9 9 9 9 9 10 9 8 8 9 7 7 8 9 8 6 7 6
11 11 10 10 8 5 4 5 7 7 5 8 8 7 6 7 4 5 7 6 5 5 8 8 8 8 7 7 9 10 10 11 12 9 9 9 9 9 8 9 10 12 13 12 11 11 10 8 8 9 10 10 9 9 9 7 7 8 8 7 6 6 6
9 9 8 7 10 9 7 3 3 4 5 6 5 4 3 4 5 3 2 4 7 7 6 6 6 9 9 8 10 12 13 12 12 11 8 9 9 11 12 10 11 12 13 13 11 9 11 12 9 9 8 9 9 9 9 8 8 7 7 6 6 4 6
6 10 9 7 7 8 8 6 5 5 5 5 6 6 6 6 5 3 3 4 5 4 4 5 5 5 6 7 7 12 12 11 12 11 9 9 9 10 11 11 12 12 11 11 12 10 9 10 12 11 8 8 8 9 8 7 8 7 5 5 4 4 6
7 7 7 7 8 9 10 11 11 7 5 4 5 5 4 4 4 5 6 5 4 4 7 4 3 2 6 11 9 8 9 11 10 9 9 8 8 8 10 11 12 12 14 13 13 13 13 12 8 10 13 9 8 8 7 7 6 4 4 4 5 6 9
9 8 7 8 6 4 7 8 6 3 2 4 5 4 2 6 7 6 6 6 7 6 6 7 4 7 12 8 6 9 8 8 7 7 7 8 9 9 8 7 5 6 7 5 8 10 9 9 8 8 8 6 4 9 9 7 5 6 4 3 4 4 5
6 5 5 3 1 2 3 5 5 4 4 5 6 5 6 8 7 6 5 5 6 7 4 4 5 9 11 8 7 8 6 7 6 6 6 7 8 7 7 6 7 6 6 9 10 12 10 12 13 13 13 12 12 11 7 7 8 5 5 4 5 6 5
6 5 4 3 3 4 5 5 5 3 7 8 5 4 7 6 8 7 6 5 7 7 6 2 5 6 5 2 5 6 7 6 6 6 6 6 6 6 6 6 6 6 8 14 14 12 13 14 14 17 15 14 13 11 11 12 8 6 9 6 5 5 6
9 8 8 8 9 9 9 8 7 6 7 7 8 7 6 5 7 6 5 5 5 5 5 5 7 7 7 5 2 3 4 3 2 3 4 5 6 6 6 7 7 6 7 10 11 13 13 14 13 12 11 10 9 10 10 10 9 8 6 6 7 4 5
7 6 6 7 8 8 8 7 7 5 7 6 7 9 7 5 4 5 5 4 3 2 4 8 9 9 7 4 2 3 6 7 7 7 8 8 6 3 6 7 8 9 9 9 8 12 15 13 12 11 11 9 9 8 8 8 7 7 7 6 6 5 5
5 5 6 6 7 7 5 5 6 4 7 8 8 9 9 8 6 6 6 4 4 4 7 9 9 8 4 4 6 7 8 9 9 9 10 9 9 9 8 10 12 11 10 10 9 12 12 13 12 12 11 9 7 7 7 5 4 4 6 6 5 5 4
7 7 7 8 8 7 8 6 5 4 10 7 8 8 7 5 3 4 3 3 4 1 4 8 7 5 4 8 7 8 9 10 10 11 11 10 10 10 9 10 12 13 12 11 9 12 11 11 12 12 10 8 7 7 6 5 4 3 3 2 1 2 4
8 7 7 9 8 6 6 5 6 5 11 9 8 5 6 8 6 4 4 2 2 4 1 5 4 5 5 5 7 10 9 11 10 10 10 10 10 10 10 13 11 12 13 11 10 12 11 12 11 10 9 8 7 7 6 5 5 4 2 2 3 3 3
6 6 7 5 6 7 6 7 6 7 8 9 8 6 5 9 6 6 4 2 5 5 4 5 5 4 6 8 9 9 11 11 11 8 9 10 9 10 10 10 11 10 10 10 11 11 10 10 10 9 9 9 8 7 3 4 6 7 9 10 10 11 11
6 7 7 6 5 8 9 8 7 8 6 8 10 7 6 7 8 5 5 5 5 5 5 5 5 4 7 8 7 9 11 14 11 8 7 9 11 9 9 10 10 10 11 11 11 10 9 10 11 8 8 9 8 5 4 5 4 4 5 5 7 6 8
9 6 8 10 9 8 7 10 8 8 9 7 9 8 8 6 8 5 5 4 5 5 4 5 5 5 8 9 10 8 7 7 11 12 10 9 10 11 9 8 7 8 11 11 10 10 11 10 8 10 9 8 5 5 4 7 7 6 7 7 7 8 9
6 10 6 8 8 6 3 5 8 9 9 9 9 8 5 6 7 5 4 4 4 5 5 6 3 4 5 8 10 11 10 9 11 14 11 8 7 6 8 8 7 7 9 10 9 9 10 9 8 9 9 5 5 5 7 5 5 6 7 7 7 8 8
9 7 9 8 10 9 7 8 6 8 10 8 8 7 5 5 6 5 4 4 4 4 5 3 5 5 5 8 8 8 10 11 8 9 13 12 10 10 7 7 7 6 7 8 8 9 9 10 8 9 8 8 7 6 5 7 6 7 7 7 7 8 9
7 8 10 10 8 11 8 7 7 8 9 11 10 8 6 6 6 6 6 3 2 4 4 5 5 6 8 9 9 11 11 10 9 8 9 12 10 9 9 7 6 6 8 9 10 11 10 9 11 9 9 9 8 7 8 8 7 7 6 7 8 9 10